Time,TemperatureF,DewpointF,PressureIn,WindDirection,WindDirectionDegrees,WindSpeedMPH,WindSpeedGustMPH,Humidity,HourlyPrecipIn,Conditions,Clouds,dailyrainin,SoftwareType,DateUTC
2013-09-07 00:00:00,62.2,50.0,30.00,WSW,247,6.8,11.0,64,0.00,,,0.00,Rainwise IP-100,2013-09-07 04:00:00,
2013-09-07 00:01:00,62.2,50.0,30.00,WSW,247,7.9,11.0,64,0.00,,,0.00,Rainwise IP-100,2013-09-07 04:01:00,
2013-09-07 00:06:00,62.1,50.0,30.00,WSW,247,6.8,9.0,64,0.00,,,0.00,Rainwise IP-100,2013-09-07 04:06:00,
2013-09-07 00:07:00,62.1,50.0,30.00,WSW,247,8.9,9.0,64,0.00,,,0.00,Rainwise IP-100,2013-09-07 04:07:00,
2013-09-07 00:11:00,61.8,49.0,30.00,WSW,247,7.5,9.0,64,0.00,,,0.00,Rainwise IP-100,2013-09-07 04:11:00,
2013-09-07 00:13:00,61.8,49.0,30.00,WSW,247,7.7,9.0,64,0.00,,,0.00,Rainwise IP-100,2013-09-07 04:13:00,
2013-09-07 00:14:00,61.8,49.0,30.00,WSW,247,6.5,11.0,63,0.00,,,0.00,Rainwise IP-100,2013-09-07 04:14:00,
2013-09-07 00:16:00,61.8,49.0,30.00,WSW,247,10.0,11.0,63,0.00,,,0.00,Rainwise IP-100,2013-09-07 04:16:00,
2013-09-07 00:17:00,61.8,49.0,30.00,WSW,247,6.8,11.0,63,0.00,,,0.00,Rainwise IP-100,2013-09-07 04:17:00,
2013-09-07 00:18:00,61.8,49.0,30.00,WSW,247,7.5,11.0,63,0.00,,,0.00,Rainwise IP-100,2013-09-07 04:18:00,
2013-09-07 00:19:00,61.8,49.0,30.00,WSW,247,8.4,10.0,63,0.00,,,0.00,Rainwise IP-100,2013-09-07 04:19:00,
2013-09-07 00:20:00,61.8,49.0,30.00,WSW,247,7.2,10.0,63,0.00,,,0.00,Rainwise IP-100,2013-09-07 04:20:00,
2013-09-07 00:21:00,61.8,49.0,30.00,WSW,247,7.9,10.0,63,0.00,,,0.00,Rainwise IP-100,2013-09-07 04:21:00,
2013-09-07 00:22:00,61.8,49.0,30.00,WSW,247,8.2,9.0,63,0.00,,,0.00,Rainwise IP-100,2013-09-07 04:22:00,
2013-09-07 00:23:00,61.8,49.0,30.00,WSW,247,7.2,8.0,63,0.00,,,0.00,Rainwise IP-100,2013-09-07 04:23:00,
2013-09-07 00:24:00,61.8,49.0,30.00,WSW,247,5.1,9.0,63,0.00,,,0.00,Rainwise IP-100,2013-09-07 04:24:00,
2013-09-07 00:26:00,61.7,49.0,30.00,WSW,247,8.6,9.0,63,0.00,,,0.00,Rainwise IP-100,2013-09-07 04:26:00,
2013-09-07 00:27:00,61.7,49.0,30.00,WSW,247,7.5,9.0,63,0.00,,,0.00,Rainwise IP-100,2013-09-07 04:27:00,
2013-09-07 00:28:00,61.7,49.0,30.00,WSW,247,7.2,9.0,63,0.00,,,0.00,Rainwise IP-100,2013-09-07 04:28:00,
2013-09-07 00:30:00,61.7,49.0,30.00,WSW,247,9.1,9.1,63,0.00,,,0.00,Rainwise IP-100,2013-09-07 04:30:00,
2013-09-07 00:31:00,61.7,49.0,30.00,WSW,247,7.5,10.0,63,0.00,,,0.00,Rainwise IP-100,2013-09-07 04:31:00,
2013-09-07 00:32:00,61.7,49.0,30.00,WSW,247,7.9,10.0,63,0.00,,,0.00,Rainwise IP-100,2013-09-07 04:32:00,
2013-09-07 00:33:00,61.7,49.0,30.00,WSW,247,6.5,10.0,63,0.00,,,0.00,Rainwise IP-100,2013-09-07 04:33:00,
2013-09-07 00:34:00,61.7,49.0,30.00,WSW,247,6.1,10.0,63,0.00,,,0.00,Rainwise IP-100,2013-09-07 04:34:00,
2013-09-07 00:36:00,61.8,49.0,30.00,WSW,247,9.8,11.0,64,0.00,,,0.00,Rainwise IP-100,2013-09-07 04:36:00,
2013-09-07 00:37:00,61.8,49.0,30.00,WSW,247,8.2,11.0,64,0.00,,,0.00,Rainwise IP-100,2013-09-07 04:37:00,
2013-09-07 00:39:00,61.8,49.0,30.00,SW,225,7.7,11.0,64,0.00,,,0.00,Rainwise IP-100,2013-09-07 04:39:00,
2013-09-07 00:40:00,61.8,49.0,30.00,WSW,247,6.8,11.0,64,0.00,,,0.00,Rainwise IP-100,2013-09-07 04:40:00,
2013-09-07 00:41:00,61.7,49.0,30.00,WSW,247,7.7,10.0,64,0.00,,,0.00,Rainwise IP-100,2013-09-07 04:41:00,
2013-09-07 00:43:00,61.7,49.0,30.00,WSW,247,7.2,10.0,64,0.00,,,0.00,Rainwise IP-100,2013-09-07 04:43:00,
2013-09-07 00:44:00,61.7,49.0,30.00,WSW,247,7.9,10.0,64,0.00,,,0.00,Rainwise IP-100,2013-09-07 04:44:00,
2013-09-07 00:45:00,61.7,49.0,30.00,WSW,247,10.3,10.3,64,0.00,,,0.00,Rainwise IP-100,2013-09-07 04:45:00,
2013-09-07 00:47:00,61.8,49.0,30.00,WSW,247,7.0,10.0,64,0.00,,,0.00,Rainwise IP-100,2013-09-07 04:47:00,
2013-09-07 00:48:00,61.8,49.0,30.00,WSW,247,7.9,10.0,64,0.00,,,0.00,Rainwise IP-100,2013-09-07 04:48:00,
2013-09-07 00:49:00,61.7,49.0,30.00,WSW,247,4.9,10.0,64,0.00,,,0.00,Rainwise IP-100,2013-09-07 04:49:00,
2013-09-07 00:50:00,61.7,49.0,29.99,WSW,247,5.1,10.0,64,0.00,,,0.00,Rainwise IP-100,2013-09-07 04:50:00,
2013-09-07 00:52:00,61.7,49.0,29.99,WSW,247,7.9,10.0,64,0.00,,,0.00,Rainwise IP-100,2013-09-07 04:52:00,
2013-09-07 00:53:00,61.7,49.0,30.00,WSW,247,6.1,10.0,64,0.00,,,0.00,Rainwise IP-100,2013-09-07 04:53:00,
2013-09-07 00:54:00,61.6,49.0,30.00,WSW,247,5.4,9.0,64,0.00,,,0.00,Rainwise IP-100,2013-09-07 04:54:00,
2013-09-07 00:55:00,61.6,50.0,30.00,WSW,247,6.8,9.0,65,0.00,,,0.00,Rainwise IP-100,2013-09-07 04:55:00,
2013-09-07 00:56:00,61.6,50.0,30.00,WSW,247,6.8,8.0,65,0.00,,,0.00,Rainwise IP-100,2013-09-07 04:56:00,
2013-09-07 00:57:00,61.5,50.0,29.99,WSW,247,6.8,8.0,65,0.00,,,0.00,Rainwise IP-100,2013-09-07 04:57:00,
2013-09-07 00:58:00,61.4,50.0,30.00,WSW,247,9.1,9.1,65,0.00,,,0.00,Rainwise IP-100,2013-09-07 04:58:00,
2013-09-07 01:00:00,61.3,50.0,29.99,WSW,247,6.5,10.0,67,0.00,,,0.00,Rainwise IP-100,2013-09-07 05:00:00,
2013-09-07 01:01:00,61.3,50.0,29.99,WSW,247,7.2,10.0,67,0.00,,,0.00,Rainwise IP-100,2013-09-07 05:01:00,
2013-09-07 01:03:00,61.2,50.0,30.00,WSW,247,7.2,10.0,68,0.00,,,0.00,Rainwise IP-100,2013-09-07 05:03:00,
2013-09-07 01:04:00,61.2,50.0,30.00,WSW,247,5.8,10.0,68,0.00,,,0.00,Rainwise IP-100,2013-09-07 05:04:00,
2013-09-07 01:05:00,61.1,50.0,30.00,WSW,247,7.0,10.0,68,0.00,,,0.00,Rainwise IP-100,2013-09-07 05:05:00,
2013-09-07 01:06:00,61.1,50.0,30.00,WSW,247,6.5,10.0,68,0.00,,,0.00,Rainwise IP-100,2013-09-07 05:06:00,
2013-09-07 01:08:00,61.1,50.0,29.99,WSW,247,5.8,9.0,69,0.00,,,0.00,Rainwise IP-100,2013-09-07 05:08:00,
2013-09-07 01:10:00,61.0,50.0,29.99,WSW,247,8.4,9.0,69,0.00,,,0.00,Rainwise IP-100,2013-09-07 05:10:00,
2013-09-07 01:11:00,61.0,50.0,29.99,WSW,247,7.7,9.0,69,0.00,,,0.00,Rainwise IP-100,2013-09-07 05:11:00,
2013-09-07 01:12:00,61.0,50.0,30.00,WSW,247,5.6,9.0,69,0.00,,,0.00,Rainwise IP-100,2013-09-07 05:12:00,
2013-09-07 01:13:00,61.0,50.0,30.00,WSW,247,6.8,9.0,69,0.00,,,0.00,Rainwise IP-100,2013-09-07 05:13:00,
2013-09-07 01:15:00,61.0,50.0,29.99,WSW,247,7.7,9.0,69,0.00,,,0.00,Rainwise IP-100,2013-09-07 05:15:00,
2013-09-07 01:16:00,61.0,50.0,29.99,WSW,247,7.0,8.0,69,0.00,,,0.00,Rainwise IP-100,2013-09-07 05:16:00,
2013-09-07 01:17:00,61.0,50.0,29.99,WSW,247,6.8,8.0,69,0.00,,,0.00,Rainwise IP-100,2013-09-07 05:17:00,
2013-09-07 01:19:00,61.1,51.0,29.99,WSW,247,6.1,8.0,70,0.00,,,0.00,Rainwise IP-100,2013-09-07 05:19:00,
2013-09-07 01:20:00,61.1,51.0,29.99,WSW,247,7.7,8.0,70,0.00,,,0.00,Rainwise IP-100,2013-09-07 05:20:00,
2013-09-07 01:21:00,61.1,50.0,29.99,WSW,247,8.4,8.4,69,0.00,,,0.00,Rainwise IP-100,2013-09-07 05:21:00,
2013-09-07 01:22:00,61.1,50.0,29.99,WSW,247,8.6,8.6,69,0.00,,,0.00,Rainwise IP-100,2013-09-07 05:22:00,
2013-09-07 01:24:00,61.1,50.0,29.99,WSW,247,7.5,9.0,69,0.00,,,0.00,Rainwise IP-100,2013-09-07 05:24:00,
2013-09-07 01:26:00,61.2,50.0,29.99,WSW,247,6.3,9.0,69,0.00,,,0.00,Rainwise IP-100,2013-09-07 05:26:00,
2013-09-07 01:27:00,61.2,50.0,29.99,WSW,247,7.2,9.0,69,0.00,,,0.00,Rainwise IP-100,2013-09-07 05:27:00,
2013-09-07 01:29:00,61.1,50.0,29.99,WSW,247,9.8,9.8,69,0.00,,,0.00,Rainwise IP-100,2013-09-07 05:29:00,
2013-09-07 01:32:00,61.1,50.0,29.99,WSW,247,8.6,9.0,69,0.00,,,0.00,Rainwise IP-100,2013-09-07 05:32:00,
2013-09-07 01:33:00,61.1,50.0,29.99,WSW,247,7.0,9.0,69,0.00,,,0.00,Rainwise IP-100,2013-09-07 05:33:00,
2013-09-07 01:34:00,61.1,50.0,29.99,WSW,247,6.8,9.0,69,0.00,,,0.00,Rainwise IP-100,2013-09-07 05:34:00,
2013-09-07 01:37:00,61.1,50.0,29.99,WSW,247,8.4,11.0,69,0.00,,,0.00,Rainwise IP-100,2013-09-07 05:37:00,
2013-09-07 01:38:00,61.1,50.0,29.99,WSW,247,8.6,11.0,69,0.00,,,0.00,Rainwise IP-100,2013-09-07 05:38:00,
2013-09-07 01:39:00,61.2,50.0,29.99,WSW,247,7.9,11.0,69,0.00,,,0.00,Rainwise IP-100,2013-09-07 05:39:00,
2013-09-07 01:40:00,61.2,50.0,29.99,WSW,247,7.5,11.0,69,0.00,,,0.00,Rainwise IP-100,2013-09-07 05:40:00,
2013-09-07 01:43:00,61.2,50.0,29.98,WSW,247,7.2,10.0,68,0.00,,,0.00,Rainwise IP-100,2013-09-07 05:43:00,
2013-09-07 01:45:00,61.2,50.0,29.99,WSW,247,7.7,9.0,68,0.00,,,0.00,Rainwise IP-100,2013-09-07 05:45:00,
2013-09-07 01:46:00,61.2,50.0,29.99,WSW,247,7.2,9.0,68,0.00,,,0.00,Rainwise IP-100,2013-09-07 05:46:00,
2013-09-07 01:48:00,61.2,50.0,29.98,WSW,247,6.8,9.0,68,0.00,,,0.00,Rainwise IP-100,2013-09-07 05:48:00,
2013-09-07 01:49:00,61.2,50.0,29.98,WSW,247,6.5,9.0,68,0.00,,,0.00,Rainwise IP-100,2013-09-07 05:49:00,
2013-09-07 01:51:00,61.1,50.0,29.98,WSW,247,7.5,9.0,68,0.00,,,0.00,Rainwise IP-100,2013-09-07 05:51:00,
2013-09-07 01:53:00,61.1,50.0,29.98,WSW,247,8.4,10.0,68,0.00,,,0.00,Rainwise IP-100,2013-09-07 05:53:00,
2013-09-07 01:54:00,61.1,50.0,29.99,WSW,247,6.8,10.0,69,0.00,,,0.00,Rainwise IP-100,2013-09-07 05:54:00,
2013-09-07 01:56:00,61.2,50.0,29.98,WSW,247,5.8,10.0,69,0.00,,,0.00,Rainwise IP-100,2013-09-07 05:56:00,
2013-09-07 01:57:00,61.1,50.0,29.98,WSW,247,8.2,9.0,69,0.00,,,0.00,Rainwise IP-100,2013-09-07 05:57:00,
2013-09-07 01:58:00,61.1,50.0,29.99,WSW,247,8.2,9.0,69,0.00,,,0.00,Rainwise IP-100,2013-09-07 05:58:00,
2013-09-07 01:59:00,61.1,50.0,29.99,WSW,247,6.5,9.0,69,0.00,,,0.00,Rainwise IP-100,2013-09-07 05:59:00,
2013-09-07 02:00:00,61.1,50.0,29.99,WSW,247,8.9,10.0,69,0.00,,,0.00,Rainwise IP-100,2013-09-07 06:00:00,
2013-09-07 02:01:00,61.1,50.0,29.98,WSW,247,7.2,10.0,69,0.00,,,0.00,Rainwise IP-100,2013-09-07 06:01:00,
2013-09-07 02:03:00,61.0,50.0,29.98,WSW,247,6.8,10.0,69,0.00,,,0.00,Rainwise IP-100,2013-09-07 06:03:00,
2013-09-07 02:04:00,61.0,50.0,29.98,WSW,247,7.2,10.0,69,0.00,,,0.00,Rainwise IP-100,2013-09-07 06:04:00,
2013-09-07 02:05:00,61.0,50.0,29.99,WSW,247,10.5,11.0,69,0.00,,,0.00,Rainwise IP-100,2013-09-07 06:05:00,
2013-09-07 02:06:00,61.0,50.0,29.98,WSW,247,5.4,11.0,69,0.00,,,0.00,Rainwise IP-100,2013-09-07 06:06:00,
2013-09-07 02:09:00,61.0,50.0,29.98,WSW,247,7.5,11.0,69,0.00,,,0.00,Rainwise IP-100,2013-09-07 06:09:00,
2013-09-07 02:10:00,61.0,50.0,29.98,WSW,247,5.6,11.0,69,0.00,,,0.00,Rainwise IP-100,2013-09-07 06:10:00,
2013-09-07 02:12:00,61.0,50.0,29.98,WSW,247,7.9,11.0,69,0.00,,,0.00,Rainwise IP-100,2013-09-07 06:12:00,
2013-09-07 02:13:00,61.0,51.0,29.98,WSW,247,7.7,11.0,70,0.00,,,0.00,Rainwise IP-100,2013-09-07 06:13:00,
2013-09-07 02:14:00,61.0,51.0,29.98,WSW,247,5.8,11.0,70,0.00,,,0.00,Rainwise IP-100,2013-09-07 06:14:00,
2013-09-07 02:15:00,61.0,51.0,29.99,WSW,247,7.9,9.0,70,0.00,,,0.00,Rainwise IP-100,2013-09-07 06:15:00,
2013-09-07 02:17:00,61.0,51.0,29.99,WSW,247,6.3,10.0,70,0.00,,,0.00,Rainwise IP-100,2013-09-07 06:17:00,
2013-09-07 02:19:00,61.0,51.0,29.99,WSW,247,6.1,10.0,70,0.00,,,0.00,Rainwise IP-100,2013-09-07 06:19:00,
2013-09-07 02:20:00,61.0,51.0,29.99,WSW,247,5.4,10.0,70,0.00,,,0.00,Rainwise IP-100,2013-09-07 06:20:00,
2013-09-07 02:22:00,61.0,51.0,29.99,WSW,247,6.8,10.0,71,0.00,,,0.00,Rainwise IP-100,2013-09-07 06:22:00,
2013-09-07 02:24:00,61.0,51.0,29.99,WSW,247,7.0,10.0,71,0.00,,,0.00,Rainwise IP-100,2013-09-07 06:24:00,
2013-09-07 02:25:00,61.0,51.0,29.99,WSW,247,7.9,9.0,71,0.00,,,0.00,Rainwise IP-100,2013-09-07 06:25:00,
2013-09-07 02:26:00,61.0,51.0,29.99,WSW,247,7.5,10.0,71,0.00,,,0.00,Rainwise IP-100,2013-09-07 06:26:00,
2013-09-07 02:27:00,61.1,51.0,29.99,WSW,247,7.9,10.0,71,0.00,,,0.00,Rainwise IP-100,2013-09-07 06:27:00,
2013-09-07 02:30:00,61.1,51.0,29.99,WSW,247,5.8,11.0,71,0.00,,,0.00,Rainwise IP-100,2013-09-07 06:30:00,
2013-09-07 02:31:00,61.1,51.0,29.98,WSW,247,12.6,12.6,71,0.00,,,0.00,Rainwise IP-100,2013-09-07 06:31:00,
2013-09-07 02:32:00,61.0,51.0,29.99,WSW,247,9.3,12.0,71,0.00,,,0.00,Rainwise IP-100,2013-09-07 06:32:00,
2013-09-07 02:34:00,61.0,51.0,29.98,WSW,247,6.5,12.0,70,0.00,,,0.00,Rainwise IP-100,2013-09-07 06:34:00,
2013-09-07 02:36:00,61.0,51.0,29.99,WSW,247,7.0,12.0,70,0.00,,,0.00,Rainwise IP-100,2013-09-07 06:36:00,
2013-09-07 02:37:00,61.0,51.0,29.98,WSW,247,8.2,12.0,70,0.00,,,0.00,Rainwise IP-100,2013-09-07 06:37:00,
2013-09-07 02:38:00,61.0,51.0,29.98,WSW,247,7.0,12.0,70,0.00,,,0.00,Rainwise IP-100,2013-09-07 06:38:00,
2013-09-07 02:39:00,61.0,51.0,29.99,WSW,247,9.8,10.0,70,0.00,,,0.00,Rainwise IP-100,2013-09-07 06:39:00,
2013-09-07 02:41:00,61.0,51.0,29.98,WSW,247,10.3,10.3,70,0.00,,,0.00,Rainwise IP-100,2013-09-07 06:41:00,
2013-09-07 02:42:00,61.0,51.0,29.98,WSW,247,7.9,10.0,70,0.00,,,0.00,Rainwise IP-100,2013-09-07 06:42:00,
2013-09-07 02:43:00,61.0,51.0,29.99,WSW,247,8.4,10.0,70,0.00,,,0.00,Rainwise IP-100,2013-09-07 06:43:00,
2013-09-07 02:44:00,61.0,51.0,29.98,WSW,247,8.4,10.0,70,0.00,,,0.00,Rainwise IP-100,2013-09-07 06:44:00,
2013-09-07 02:46:00,61.0,51.0,29.99,WSW,247,9.1,11.0,70,0.00,,,0.00,Rainwise IP-100,2013-09-07 06:46:00,
2013-09-07 02:47:00,61.0,51.0,29.99,WSW,247,7.2,11.0,70,0.00,,,0.00,Rainwise IP-100,2013-09-07 06:47:00,
2013-09-07 02:48:00,61.1,51.0,29.99,WSW,247,8.9,11.0,70,0.00,,,0.00,Rainwise IP-100,2013-09-07 06:48:00,
2013-09-07 02:49:00,61.1,51.0,29.98,WSW,247,11.0,11.0,70,0.00,,,0.00,Rainwise IP-100,2013-09-07 06:49:00,
2013-09-07 02:50:00,61.1,51.0,29.98,West,270,7.9,12.0,70,0.00,,,0.00,Rainwise IP-100,2013-09-07 06:50:00,
2013-09-07 02:52:00,61.2,51.0,29.99,WSW,247,7.0,12.0,70,0.00,,,0.00,Rainwise IP-100,2013-09-07 06:52:00,
2013-09-07 02:53:00,61.2,51.0,29.98,WSW,247,5.6,12.0,70,0.00,,,0.00,Rainwise IP-100,2013-09-07 06:53:00,
2013-09-07 02:57:00,61.2,51.0,29.99,WSW,247,4.9,11.0,70,0.00,,,0.00,Rainwise IP-100,2013-09-07 06:57:00,
2013-09-07 02:58:00,61.1,51.0,29.99,WSW,247,8.6,11.0,70,0.00,,,0.00,Rainwise IP-100,2013-09-07 06:58:00,
2013-09-07 02:59:00,61.1,51.0,29.99,WSW,247,6.1,11.0,70,0.00,,,0.00,Rainwise IP-100,2013-09-07 06:59:00,
2013-09-07 03:01:00,61.1,51.0,29.99,WSW,247,6.5,11.0,70,0.00,,,0.00,Rainwise IP-100,2013-09-07 07:01:00,
2013-09-07 03:02:00,61.1,51.0,29.99,WSW,247,6.8,9.0,70,0.00,,,0.00,Rainwise IP-100,2013-09-07 07:02:00,
2013-09-07 03:03:00,61.1,51.0,29.98,WSW,247,9.3,9.3,70,0.00,,,0.00,Rainwise IP-100,2013-09-07 07:03:00,
2013-09-07 03:04:00,61.0,51.0,29.98,SW,225,7.5,9.0,71,0.00,,,0.00,Rainwise IP-100,2013-09-07 07:04:00,
2013-09-07 03:05:00,61.0,51.0,29.99,WSW,247,8.4,10.0,71,0.00,,,0.00,Rainwise IP-100,2013-09-07 07:05:00,
2013-09-07 03:06:00,61.0,51.0,29.99,WSW,247,7.5,10.0,71,0.00,,,0.00,Rainwise IP-100,2013-09-07 07:06:00,
2013-09-07 03:08:00,61.0,51.0,29.99,WSW,247,8.6,10.0,71,0.00,,,0.00,Rainwise IP-100,2013-09-07 07:08:00,
2013-09-07 03:09:00,61.0,51.0,29.99,WSW,247,8.6,10.0,71,0.00,,,0.00,Rainwise IP-100,2013-09-07 07:09:00,
2013-09-07 03:10:00,61.0,51.0,29.99,WSW,247,7.9,10.0,71,0.00,,,0.00,Rainwise IP-100,2013-09-07 07:10:00,
2013-09-07 03:11:00,61.1,51.0,29.99,WSW,247,7.0,10.0,71,0.00,,,0.00,Rainwise IP-100,2013-09-07 07:11:00,
2013-09-07 03:13:00,61.1,51.0,29.99,WSW,247,11.0,11.0,71,0.00,,,0.00,Rainwise IP-100,2013-09-07 07:13:00,
2013-09-07 03:14:00,61.1,51.0,29.99,WSW,247,7.9,11.0,71,0.00,,,0.00,Rainwise IP-100,2013-09-07 07:14:00,
2013-09-07 03:15:00,61.2,51.0,29.99,WSW,247,8.2,12.0,71,0.00,,,0.00,Rainwise IP-100,2013-09-07 07:15:00,
2013-09-07 03:16:00,61.2,51.0,29.99,WSW,247,7.2,12.0,71,0.00,,,0.00,Rainwise IP-100,2013-09-07 07:16:00,
2013-09-07 03:17:00,61.2,51.0,29.99,WSW,247,7.2,12.0,71,0.00,,,0.00,Rainwise IP-100,2013-09-07 07:17:00,
2013-09-07 03:18:00,61.2,51.0,29.99,WSW,247,7.5,12.0,71,0.00,,,0.00,Rainwise IP-100,2013-09-07 07:18:00,
2013-09-07 03:19:00,61.3,51.0,29.99,WSW,247,7.9,12.0,71,0.00,,,0.00,Rainwise IP-100,2013-09-07 07:19:00,
2013-09-07 03:20:00,61.3,51.0,29.99,WSW,247,8.6,11.0,71,0.00,,,0.00,Rainwise IP-100,2013-09-07 07:20:00,
2013-09-07 03:21:00,61.3,51.0,29.99,WSW,247,9.3,10.0,71,0.00,,,0.00,Rainwise IP-100,2013-09-07 07:21:00,
2013-09-07 03:23:00,61.3,51.0,29.98,WSW,247,8.2,10.0,71,0.00,,,0.00,Rainwise IP-100,2013-09-07 07:23:00,
2013-09-07 03:24:00,61.3,51.0,29.98,SW,225,8.2,10.0,71,0.00,,,0.00,Rainwise IP-100,2013-09-07 07:24:00,
2013-09-07 03:25:00,61.3,51.0,29.98,WSW,247,8.6,11.0,71,0.00,,,0.00,Rainwise IP-100,2013-09-07 07:25:00,
2013-09-07 03:28:00,61.2,51.0,29.99,WSW,247,8.6,12.0,71,0.00,,,0.00,Rainwise IP-100,2013-09-07 07:28:00,
2013-09-07 03:29:00,61.2,51.0,29.98,West,270,9.6,12.0,71,0.00,,,0.00,Rainwise IP-100,2013-09-07 07:29:00,
2013-09-07 03:30:00,61.2,51.0,29.98,WSW,247,12.6,12.6,71,0.00,,,0.00,Rainwise IP-100,2013-09-07 07:30:00,
2013-09-07 03:31:00,61.2,51.0,29.98,West,270,7.0,14.0,71,0.00,,,0.00,Rainwise IP-100,2013-09-07 07:31:00,
2013-09-07 03:33:00,61.3,51.0,29.98,WSW,247,6.3,14.0,71,0.00,,,0.00,Rainwise IP-100,2013-09-07 07:33:00,
2013-09-07 03:34:00,61.3,51.0,29.99,WSW,247,9.3,14.0,71,0.00,,,0.00,Rainwise IP-100,2013-09-07 07:34:00,
2013-09-07 03:35:00,61.3,51.0,29.99,WSW,247,6.8,14.0,71,0.00,,,0.00,Rainwise IP-100,2013-09-07 07:35:00,
2013-09-07 03:39:00,61.3,51.0,29.98,WSW,247,7.7,12.0,71,0.00,,,0.00,Rainwise IP-100,2013-09-07 07:39:00,
2013-09-07 03:41:00,61.3,51.0,29.98,WSW,247,7.2,12.0,71,0.00,,,0.00,Rainwise IP-100,2013-09-07 07:41:00,
2013-09-07 03:44:00,61.3,52.0,29.98,WSW,247,7.0,11.0,72,0.00,,,0.00,Rainwise IP-100,2013-09-07 07:44:00,
2013-09-07 03:45:00,61.2,52.0,29.98,WSW,247,9.3,11.0,72,0.00,,,0.00,Rainwise IP-100,2013-09-07 07:45:00,
2013-09-07 03:46:00,61.3,52.0,29.98,WSW,247,9.3,11.0,72,0.00,,,0.00,Rainwise IP-100,2013-09-07 07:46:00,
2013-09-07 03:49:00,61.3,52.0,29.98,WSW,247,9.8,14.0,72,0.00,,,0.00,Rainwise IP-100,2013-09-07 07:49:00,
2013-09-07 03:50:00,61.3,52.0,29.98,WSW,247,10.3,14.0,72,0.00,,,0.00,Rainwise IP-100,2013-09-07 07:50:00,
2013-09-07 03:51:00,61.4,53.0,29.98,WSW,247,9.8,14.0,72,0.00,,,0.00,Rainwise IP-100,2013-09-07 07:51:00,
2013-09-07 03:53:00,61.4,52.0,29.98,WSW,247,10.5,13.0,71,0.00,,,0.00,Rainwise IP-100,2013-09-07 07:53:00,
2013-09-07 03:54:00,61.5,52.0,29.98,WSW,247,7.9,13.0,71,0.00,,,0.00,Rainwise IP-100,2013-09-07 07:54:00,
2013-09-07 03:55:00,61.5,52.0,29.98,WSW,247,12.8,13.0,71,0.00,,,0.00,Rainwise IP-100,2013-09-07 07:55:00,
2013-09-07 03:58:00,61.5,52.0,29.98,WSW,247,11.4,13.0,71,0.00,,,0.00,Rainwise IP-100,2013-09-07 07:58:00,
2013-09-07 03:59:00,61.6,52.0,29.98,WSW,247,10.3,13.0,71,0.00,,,0.00,Rainwise IP-100,2013-09-07 07:59:00,
2013-09-07 04:00:00,61.6,52.0,29.98,WSW,247,10.3,13.0,71,0.00,,,0.00,Rainwise IP-100,2013-09-07 08:00:00,
2013-09-07 04:04:00,61.6,52.0,29.98,WSW,247,8.9,14.0,71,0.00,,,0.00,Rainwise IP-100,2013-09-07 08:04:00,
2013-09-07 04:05:00,61.6,52.0,29.98,WSW,247,7.5,14.0,71,0.00,,,0.00,Rainwise IP-100,2013-09-07 08:05:00,
2013-09-07 04:06:00,61.6,52.0,29.98,WSW,247,10.5,13.0,71,0.00,,,0.00,Rainwise IP-100,2013-09-07 08:06:00,
2013-09-07 04:10:00,61.6,52.0,29.98,WSW,247,10.7,11.0,70,0.00,,,0.00,Rainwise IP-100,2013-09-07 08:10:00,
2013-09-07 04:11:00,61.6,52.0,29.98,WSW,247,7.5,11.0,70,0.00,,,0.00,Rainwise IP-100,2013-09-07 08:11:00,
2013-09-07 04:13:00,61.6,52.0,29.98,WSW,247,12.4,12.4,70,0.00,,,0.00,Rainwise IP-100,2013-09-07 08:13:00,
2013-09-07 04:15:00,61.6,52.0,29.98,WSW,247,9.1,14.0,70,0.00,,,0.00,Rainwise IP-100,2013-09-07 08:15:00,
2013-09-07 04:16:00,61.6,52.0,29.98,WSW,247,8.9,14.0,70,0.00,,,0.00,Rainwise IP-100,2013-09-07 08:16:00,
2013-09-07 04:19:00,61.6,52.0,29.98,WSW,247,9.3,14.0,70,0.00,,,0.00,Rainwise IP-100,2013-09-07 08:19:00,
2013-09-07 04:21:00,61.6,52.0,29.97,West,270,8.6,12.0,70,0.00,,,0.00,Rainwise IP-100,2013-09-07 08:21:00,
2013-09-07 04:22:00,61.6,52.0,29.98,WSW,247,9.6,12.0,70,0.00,,,0.00,Rainwise IP-100,2013-09-07 08:22:00,
2013-09-07 04:23:00,61.7,52.0,29.97,WSW,247,9.3,12.0,70,0.00,,,0.00,Rainwise IP-100,2013-09-07 08:23:00,
2013-09-07 04:24:00,61.6,52.0,29.98,WSW,247,7.0,12.0,70,0.00,,,0.00,Rainwise IP-100,2013-09-07 08:24:00,
2013-09-07 04:26:00,61.6,52.0,29.98,WSW,247,10.7,12.0,70,0.00,,,0.00,Rainwise IP-100,2013-09-07 08:26:00,
2013-09-07 04:27:00,61.7,52.0,29.98,WSW,247,8.9,13.0,70,0.00,,,0.00,Rainwise IP-100,2013-09-07 08:27:00,
2013-09-07 04:28:00,61.6,51.0,29.98,WSW,247,8.6,13.0,69,0.00,,,0.00,Rainwise IP-100,2013-09-07 08:28:00,
2013-09-07 04:30:00,61.6,51.0,29.98,WSW,247,8.6,14.0,69,0.00,,,0.00,Rainwise IP-100,2013-09-07 08:30:00,
2013-09-07 04:31:00,61.6,51.0,29.98,WSW,247,8.9,14.0,69,0.00,,,0.00,Rainwise IP-100,2013-09-07 08:31:00,
2013-09-07 04:32:00,61.6,51.0,29.98,WSW,247,10.7,14.0,69,0.00,,,0.00,Rainwise IP-100,2013-09-07 08:32:00,
2013-09-07 04:34:00,61.6,51.0,29.98,WSW,247,7.9,14.0,69,0.00,,,0.00,Rainwise IP-100,2013-09-07 08:34:00,
2013-09-07 04:35:00,61.6,51.0,29.98,WSW,247,7.2,14.0,69,0.00,,,0.00,Rainwise IP-100,2013-09-07 08:35:00,
2013-09-07 04:36:00,61.6,51.0,29.98,WSW,247,7.0,16.0,69,0.00,,,0.00,Rainwise IP-100,2013-09-07 08:36:00,
2013-09-07 04:37:00,61.6,51.0,29.98,WSW,247,7.5,16.0,69,0.00,,,0.00,Rainwise IP-100,2013-09-07 08:37:00,
2013-09-07 04:41:00,61.6,51.0,29.98,West,270,12.4,16.0,69,0.00,,,0.00,Rainwise IP-100,2013-09-07 08:41:00,
2013-09-07 04:42:00,61.6,51.0,29.98,WSW,247,6.1,15.0,69,0.00,,,0.00,Rainwise IP-100,2013-09-07 08:42:00,
2013-09-07 04:46:00,61.6,51.0,29.98,WSW,247,5.8,14.0,69,0.00,,,0.00,Rainwise IP-100,2013-09-07 08:46:00,
2013-09-07 04:47:00,61.6,51.0,29.98,WSW,247,10.7,14.0,69,0.00,,,0.00,Rainwise IP-100,2013-09-07 08:47:00,
2013-09-07 04:48:00,61.6,51.0,29.98,West,270,13.3,14.0,69,0.00,,,0.00,Rainwise IP-100,2013-09-07 08:48:00,
2013-09-07 04:49:00,61.6,51.0,29.98,WSW,247,6.5,14.0,69,0.00,,,0.00,Rainwise IP-100,2013-09-07 08:49:00,
2013-09-07 04:52:00,61.6,51.0,29.98,WSW,247,8.4,14.0,69,0.00,,,0.00,Rainwise IP-100,2013-09-07 08:52:00,
2013-09-07 04:53:00,61.5,51.0,29.98,WSW,247,8.2,14.0,69,0.00,,,0.00,Rainwise IP-100,2013-09-07 08:53:00,
2013-09-07 04:54:00,61.5,51.0,29.98,WSW,247,7.2,10.0,69,0.00,,,0.00,Rainwise IP-100,2013-09-07 08:54:00,
2013-09-07 04:58:00,61.5,52.0,29.98,WSW,247,7.5,11.0,70,0.00,,,0.00,Rainwise IP-100,2013-09-07 08:58:00,
2013-09-07 04:59:00,61.5,52.0,29.98,WSW,247,9.6,11.0,70,0.00,,,0.00,Rainwise IP-100,2013-09-07 08:59:00,
2013-09-07 05:01:00,61.5,52.0,29.98,WSW,247,8.9,13.0,70,0.00,,,0.00,Rainwise IP-100,2013-09-07 09:01:00,
2013-09-07 05:02:00,61.5,52.0,29.98,WSW,247,10.3,13.0,70,0.00,,,0.00,Rainwise IP-100,2013-09-07 09:02:00,
2013-09-07 05:03:00,61.5,52.0,29.98,West,270,10.7,13.0,70,0.00,,,0.00,Rainwise IP-100,2013-09-07 09:03:00,
2013-09-07 05:04:00,61.5,52.0,29.98,WSW,247,8.4,13.0,70,0.00,,,0.00,Rainwise IP-100,2013-09-07 09:04:00,
2013-09-07 05:08:00,61.5,52.0,29.98,WSW,247,11.4,12.0,70,0.00,,,0.00,Rainwise IP-100,2013-09-07 09:08:00,
2013-09-07 05:09:00,61.6,52.0,29.98,WSW,247,7.0,12.0,70,0.00,,,0.00,Rainwise IP-100,2013-09-07 09:09:00,
2013-09-07 05:11:00,61.6,52.0,29.98,WSW,247,9.3,13.0,70,0.00,,,0.00,Rainwise IP-100,2013-09-07 09:11:00,
2013-09-07 05:13:00,61.6,52.0,29.98,WSW,247,8.9,13.0,70,0.00,,,0.00,Rainwise IP-100,2013-09-07 09:13:00,
2013-09-07 05:14:00,61.6,52.0,29.98,WSW,247,7.0,11.0,70,0.00,,,0.00,Rainwise IP-100,2013-09-07 09:14:00,
2013-09-07 05:17:00,61.5,52.0,29.98,WSW,247,7.9,12.0,70,0.00,,,0.00,Rainwise IP-100,2013-09-07 09:17:00,
2013-09-07 05:18:00,61.5,52.0,29.98,West,270,10.0,12.0,70,0.00,,,0.00,Rainwise IP-100,2013-09-07 09:18:00,
2013-09-07 05:19:00,61.5,52.0,29.98,WSW,247,7.9,12.0,70,0.00,,,0.00,Rainwise IP-100,2013-09-07 09:19:00,
2013-09-07 05:20:00,61.5,52.0,29.97,WSW,247,11.2,12.0,70,0.00,,,0.00,Rainwise IP-100,2013-09-07 09:20:00,
2013-09-07 05:22:00,61.6,52.0,29.97,WSW,247,6.5,13.0,70,0.00,,,0.00,Rainwise IP-100,2013-09-07 09:22:00,
2013-09-07 05:24:00,61.6,51.0,29.98,WSW,247,9.1,13.0,69,0.00,,,0.00,Rainwise IP-100,2013-09-07 09:24:00,
2013-09-07 05:26:00,61.6,51.0,29.98,WSW,247,7.2,13.0,69,0.00,,,0.00,Rainwise IP-100,2013-09-07 09:26:00,
2013-09-07 05:27:00,61.6,51.0,29.98,WSW,247,8.4,13.0,69,0.00,,,0.00,Rainwise IP-100,2013-09-07 09:27:00,
2013-09-07 05:29:00,61.6,51.0,29.98,WSW,247,9.3,13.0,69,0.00,,,0.00,Rainwise IP-100,2013-09-07 09:29:00,
2013-09-07 05:30:00,61.6,50.0,29.98,WSW,247,7.2,13.0,68,0.00,,,0.00,Rainwise IP-100,2013-09-07 09:30:00,
2013-09-07 05:31:00,61.6,50.0,29.98,WSW,247,8.6,12.0,68,0.00,,,0.00,Rainwise IP-100,2013-09-07 09:31:00,
2013-09-07 05:33:00,61.6,50.0,29.98,WSW,247,8.6,11.0,68,0.00,,,0.00,Rainwise IP-100,2013-09-07 09:33:00,
2013-09-07 05:34:00,61.6,50.0,29.98,WSW,247,10.0,11.0,68,0.00,,,0.00,Rainwise IP-100,2013-09-07 09:34:00,
2013-09-07 05:35:00,61.6,50.0,29.98,WSW,247,8.4,11.0,68,0.00,,,0.00,Rainwise IP-100,2013-09-07 09:35:00,
2013-09-07 05:36:00,61.6,50.0,29.98,WSW,247,7.9,11.0,68,0.00,,,0.00,Rainwise IP-100,2013-09-07 09:36:00,
2013-09-07 05:37:00,61.6,50.0,29.98,WSW,247,9.6,11.0,68,0.00,,,0.00,Rainwise IP-100,2013-09-07 09:37:00,
2013-09-07 05:38:00,61.6,50.0,29.98,WSW,247,10.7,12.0,68,0.00,,,0.00,Rainwise IP-100,2013-09-07 09:38:00,
2013-09-07 05:40:00,61.6,50.0,29.98,WSW,247,11.4,12.0,68,0.00,,,0.00,Rainwise IP-100,2013-09-07 09:40:00,
2013-09-07 05:42:00,61.6,50.0,29.98,WSW,247,9.8,12.0,67,0.00,,,0.00,Rainwise IP-100,2013-09-07 09:42:00,
2013-09-07 05:43:00,61.6,50.0,29.98,WSW,247,7.0,12.0,67,0.00,,,0.00,Rainwise IP-100,2013-09-07 09:43:00,
2013-09-07 05:45:00,61.7,50.0,29.98,WSW,247,11.2,12.0,67,0.00,,,0.00,Rainwise IP-100,2013-09-07 09:45:00,
2013-09-07 05:46:00,61.7,50.0,29.98,WSW,247,11.4,13.0,67,0.00,,,0.00,Rainwise IP-100,2013-09-07 09:46:00,
2013-09-07 05:47:00,61.7,50.0,29.98,WSW,247,8.9,15.0,67,0.00,,,0.00,Rainwise IP-100,2013-09-07 09:47:00,
2013-09-07 05:48:00,61.7,50.0,29.98,WSW,247,10.3,15.0,67,0.00,,,0.00,Rainwise IP-100,2013-09-07 09:48:00,
2013-09-07 05:50:00,61.7,50.0,29.98,WSW,247,9.1,15.0,67,0.00,,,0.00,Rainwise IP-100,2013-09-07 09:50:00,
2013-09-07 05:52:00,61.7,50.0,29.98,WSW,247,9.1,15.0,67,0.00,,,0.00,Rainwise IP-100,2013-09-07 09:52:00,
2013-09-07 05:53:00,61.7,50.0,29.98,WSW,247,10.3,13.0,67,0.00,,,0.00,Rainwise IP-100,2013-09-07 09:53:00,
2013-09-07 05:54:00,61.7,50.0,29.98,WSW,247,10.0,13.0,67,0.00,,,0.00,Rainwise IP-100,2013-09-07 09:54:00,
2013-09-07 05:56:00,61.7,50.0,29.98,WSW,247,11.2,13.0,67,0.00,,,0.00,Rainwise IP-100,2013-09-07 09:56:00,
2013-09-07 05:57:00,61.7,50.0,29.98,WSW,247,8.9,13.0,67,0.00,,,0.00,Rainwise IP-100,2013-09-07 09:57:00,
2013-09-07 05:58:00,61.7,50.0,29.98,WSW,247,9.3,13.0,67,0.00,,,0.00,Rainwise IP-100,2013-09-07 09:58:00,
2013-09-07 05:59:00,61.7,50.0,29.98,WSW,247,7.2,13.0,67,0.00,,,0.00,Rainwise IP-100,2013-09-07 09:59:00,
2013-09-07 06:00:00,61.7,50.0,29.98,WSW,247,7.5,13.0,67,0.00,,,0.00,Rainwise IP-100,2013-09-07 10:00:00,
2013-09-07 06:01:00,61.7,50.0,29.98,WSW,247,7.5,13.0,67,0.00,,,0.00,Rainwise IP-100,2013-09-07 10:01:00,
2013-09-07 06:02:00,61.7,50.0,29.98,WSW,247,9.6,11.0,68,0.00,,,0.00,Rainwise IP-100,2013-09-07 10:02:00,
2013-09-07 06:03:00,61.7,50.0,29.98,WSW,247,9.1,11.0,68,0.00,,,0.00,Rainwise IP-100,2013-09-07 10:03:00,
2013-09-07 06:05:00,61.7,50.0,29.98,SW,225,10.7,13.0,68,0.00,,,0.00,Rainwise IP-100,2013-09-07 10:05:00,
2013-09-07 06:06:00,61.7,50.0,29.98,WSW,247,10.3,13.0,68,0.00,,,0.00,Rainwise IP-100,2013-09-07 10:06:00,
2013-09-07 06:08:00,61.7,50.0,29.98,WSW,247,9.8,13.0,68,0.00,,,0.00,Rainwise IP-100,2013-09-07 10:08:00,
2013-09-07 06:10:00,61.7,50.0,29.98,WSW,247,8.4,12.0,68,0.00,,,0.00,Rainwise IP-100,2013-09-07 10:10:00,
2013-09-07 06:11:00,61.7,50.0,29.98,WSW,247,7.2,12.0,68,0.00,,,0.00,Rainwise IP-100,2013-09-07 10:11:00,
2013-09-07 06:12:00,61.7,50.0,29.98,WSW,247,7.2,11.0,68,0.00,,,0.00,Rainwise IP-100,2013-09-07 10:12:00,
2013-09-07 06:14:00,61.6,50.0,29.98,WSW,247,7.0,11.0,68,0.00,,,0.00,Rainwise IP-100,2013-09-07 10:14:00,
2013-09-07 06:15:00,61.6,50.0,29.97,WSW,247,8.9,13.0,68,0.00,,,0.00,Rainwise IP-100,2013-09-07 10:15:00,
2013-09-07 06:16:00,61.6,50.0,29.98,WSW,247,11.2,13.0,68,0.00,,,0.00,Rainwise IP-100,2013-09-07 10:16:00,
2013-09-07 06:17:00,61.6,50.0,29.97,WSW,247,8.2,13.0,68,0.00,,,0.00,Rainwise IP-100,2013-09-07 10:17:00,
2013-09-07 06:19:00,61.6,51.0,29.98,WSW,247,8.6,13.0,69,0.00,,,0.00,Rainwise IP-100,2013-09-07 10:19:00,
2013-09-07 06:21:00,61.6,50.0,29.97,WSW,247,8.4,11.0,68,0.00,,,0.00,Rainwise IP-100,2013-09-07 10:21:00,
2013-09-07 06:22:00,61.6,50.0,29.98,WSW,247,10.0,12.0,68,0.00,,,0.00,Rainwise IP-100,2013-09-07 10:22:00,
2013-09-07 06:24:00,61.7,50.0,29.98,WSW,247,9.8,13.0,68,0.00,,,0.00,Rainwise IP-100,2013-09-07 10:24:00,
2013-09-07 06:26:00,61.8,50.0,29.98,WSW,247,9.3,13.0,68,0.00,,,0.00,Rainwise IP-100,2013-09-07 10:26:00,
2013-09-07 06:27:00,61.8,50.0,29.98,West,270,9.3,13.0,68,0.00,,,0.00,Rainwise IP-100,2013-09-07 10:27:00,
2013-09-07 06:28:00,61.9,51.0,29.98,WSW,247,11.4,13.0,67,0.00,,,0.00,Rainwise IP-100,2013-09-07 10:28:00,
2013-09-07 06:29:00,61.9,51.0,29.98,WSW,247,6.8,13.0,67,0.00,,,0.00,Rainwise IP-100,2013-09-07 10:29:00,
2013-09-07 06:31:00,61.9,51.0,29.98,WSW,247,10.3,13.0,67,0.00,,,0.00,Rainwise IP-100,2013-09-07 10:31:00,
2013-09-07 06:32:00,61.9,51.0,29.98,WSW,247,8.9,12.0,67,0.00,,,0.00,Rainwise IP-100,2013-09-07 10:32:00,
2013-09-07 06:34:00,61.9,51.0,29.98,WSW,247,9.3,15.0,67,0.00,,,0.00,Rainwise IP-100,2013-09-07 10:34:00,
2013-09-07 06:35:00,61.9,51.0,29.98,WSW,247,10.7,15.0,67,0.00,,,0.00,Rainwise IP-100,2013-09-07 10:35:00,
2013-09-07 06:37:00,61.9,51.0,29.98,WSW,247,12.1,15.0,67,0.00,,,0.00,Rainwise IP-100,2013-09-07 10:37:00,
2013-09-07 06:38:00,61.9,51.0,29.98,WSW,247,7.9,15.0,67,0.00,,,0.00,Rainwise IP-100,2013-09-07 10:38:00,
2013-09-07 06:39:00,62.0,51.0,29.98,WSW,247,12.6,15.0,67,0.00,,,0.00,Rainwise IP-100,2013-09-07 10:39:00,
2013-09-07 06:40:00,62.0,51.0,29.98,WSW,247,7.9,15.0,67,0.00,,,0.00,Rainwise IP-100,2013-09-07 10:40:00,
2013-09-07 06:42:00,62.1,51.0,29.97,WSW,247,15.2,15.2,67,0.00,,,0.00,Rainwise IP-100,2013-09-07 10:42:00,
2013-09-07 06:43:00,62.1,51.0,29.97,WSW,247,11.4,15.0,67,0.00,,,0.00,Rainwise IP-100,2013-09-07 10:43:00,
2013-09-07 06:45:00,62.2,51.0,29.97,WSW,247,9.3,15.0,67,0.00,,,0.00,Rainwise IP-100,2013-09-07 10:45:00,
2013-09-07 06:47:00,62.3,51.0,29.97,WSW,247,6.3,15.0,67,0.00,,,0.00,Rainwise IP-100,2013-09-07 10:47:00,
2013-09-07 06:49:00,62.4,51.0,29.97,WSW,247,12.1,13.0,67,0.00,,,0.00,Rainwise IP-100,2013-09-07 10:49:00,
2013-09-07 06:50:00,62.4,51.0,29.97,WSW,247,10.7,15.0,67,0.00,,,0.00,Rainwise IP-100,2013-09-07 10:50:00,
2013-09-07 06:51:00,62.4,51.0,29.97,WSW,247,11.0,15.0,67,0.00,,,0.00,Rainwise IP-100,2013-09-07 10:51:00,
2013-09-07 06:53:00,62.5,51.0,29.98,WSW,247,11.9,15.0,67,0.00,,,0.00,Rainwise IP-100,2013-09-07 10:53:00,
2013-09-07 06:56:00,62.6,51.0,29.97,SW,225,10.3,13.0,67,0.00,,,0.00,Rainwise IP-100,2013-09-07 10:56:00,
2013-09-07 06:57:00,62.6,51.0,29.97,WSW,247,14.9,14.9,67,0.00,,,0.00,Rainwise IP-100,2013-09-07 10:57:00,
2013-09-07 06:58:00,62.6,51.0,29.97,WSW,247,9.8,15.0,67,0.00,,,0.00,Rainwise IP-100,2013-09-07 10:58:00,
2013-09-07 07:01:00,62.7,51.0,29.97,WSW,247,11.2,16.0,67,0.00,,,0.00,Rainwise IP-100,2013-09-07 11:01:00,
2013-09-07 07:02:00,62.7,51.0,29.97,WSW,247,11.7,16.0,66,0.00,,,0.00,Rainwise IP-100,2013-09-07 11:02:00,
2013-09-07 07:03:00,62.7,51.0,29.97,WSW,247,13.8,16.0,66,0.00,,,0.00,Rainwise IP-100,2013-09-07 11:03:00,
2013-09-07 07:06:00,62.9,51.0,29.97,WSW,247,14.0,16.0,66,0.00,,,0.00,Rainwise IP-100,2013-09-07 11:06:00,
2013-09-07 07:07:00,62.9,51.0,29.96,WSW,247,14.9,16.0,66,0.00,,,0.00,Rainwise IP-100,2013-09-07 11:07:00,
2013-09-07 07:08:00,63.0,51.0,29.97,WSW,247,12.4,16.0,66,0.00,,,0.00,Rainwise IP-100,2013-09-07 11:08:00,
2013-09-07 07:10:00,63.0,51.0,29.97,WSW,247,11.7,16.0,65,0.00,,,0.00,Rainwise IP-100,2013-09-07 11:10:00,
2013-09-07 07:11:00,63.1,51.0,29.97,WSW,247,8.4,16.0,65,0.00,,,0.00,Rainwise IP-100,2013-09-07 11:11:00,
2013-09-07 07:12:00,63.1,51.0,29.97,WSW,247,11.7,15.0,65,0.00,,,0.00,Rainwise IP-100,2013-09-07 11:12:00,
2013-09-07 07:13:00,63.1,51.0,29.97,WSW,247,11.0,15.0,66,0.00,,,0.00,Rainwise IP-100,2013-09-07 11:13:00,
2013-09-07 07:16:00,63.1,51.0,29.97,WSW,247,10.5,16.0,66,0.00,,,0.00,Rainwise IP-100,2013-09-07 11:16:00,
2013-09-07 07:17:00,63.1,51.0,29.97,WSW,247,11.2,16.0,66,0.00,,,0.00,Rainwise IP-100,2013-09-07 11:17:00,
2013-09-07 07:18:00,63.1,51.0,29.97,WSW,247,7.2,16.0,66,0.00,,,0.00,Rainwise IP-100,2013-09-07 11:18:00,
2013-09-07 07:21:00,63.1,52.0,29.96,WSW,247,11.4,14.0,67,0.00,,,0.00,Rainwise IP-100,2013-09-07 11:21:00,
2013-09-07 07:23:00,63.0,52.0,29.96,WSW,247,12.1,13.0,67,0.00,,,0.00,Rainwise IP-100,2013-09-07 11:23:00,
2013-09-07 07:24:00,63.0,52.0,29.96,WSW,247,12.6,13.0,67,0.00,,,0.00,Rainwise IP-100,2013-09-07 11:24:00,
2013-09-07 07:26:00,63.0,52.0,29.96,WSW,247,9.8,14.0,67,0.00,,,0.00,Rainwise IP-100,2013-09-07 11:26:00,
2013-09-07 07:28:00,63.1,52.0,29.96,WSW,247,12.8,14.0,67,0.00,,,0.00,Rainwise IP-100,2013-09-07 11:28:00,
2013-09-07 07:29:00,63.1,52.0,29.97,WSW,247,10.3,14.0,67,0.00,,,0.00,Rainwise IP-100,2013-09-07 11:29:00,
2013-09-07 07:30:00,63.1,52.0,29.97,WSW,247,11.0,14.0,67,0.00,,,0.00,Rainwise IP-100,2013-09-07 11:30:00,
2013-09-07 07:32:00,63.2,52.0,29.97,WSW,247,7.0,14.0,67,0.00,,,0.00,Rainwise IP-100,2013-09-07 11:32:00,
2013-09-07 07:33:00,63.2,52.0,29.97,WSW,247,5.4,13.0,68,0.00,,,0.00,Rainwise IP-100,2013-09-07 11:33:00,
2013-09-07 07:34:00,63.3,52.0,29.96,WSW,247,8.9,11.0,68,0.00,,,0.00,Rainwise IP-100,2013-09-07 11:34:00,
2013-09-07 07:35:00,63.3,52.0,29.96,WSW,247,11.9,11.9,68,0.00,,,0.00,Rainwise IP-100,2013-09-07 11:35:00,
2013-09-07 07:38:00,63.3,52.0,29.97,WSW,247,9.3,15.0,68,0.00,,,0.00,Rainwise IP-100,2013-09-07 11:38:00,
2013-09-07 07:39:00,63.3,52.0,29.97,WSW,247,8.2,15.0,68,0.00,,,0.00,Rainwise IP-100,2013-09-07 11:39:00,
2013-09-07 07:40:00,63.3,52.0,29.96,WSW,247,7.2,15.0,68,0.00,,,0.00,Rainwise IP-100,2013-09-07 11:40:00,
2013-09-07 07:44:00,63.4,53.0,29.97,WSW,247,8.6,13.0,68,0.00,,,0.00,Rainwise IP-100,2013-09-07 11:44:00,
2013-09-07 07:45:00,63.4,53.0,29.96,West,270,11.4,13.0,68,0.00,,,0.00,Rainwise IP-100,2013-09-07 11:45:00,
2013-09-07 07:46:00,63.5,53.0,29.96,WSW,247,7.9,13.0,68,0.00,,,0.00,Rainwise IP-100,2013-09-07 11:46:00,
2013-09-07 07:49:00,63.6,53.0,29.96,WSW,247,13.1,16.0,68,0.00,,,0.00,Rainwise IP-100,2013-09-07 11:49:00,
2013-09-07 07:51:00,63.6,53.0,29.96,WSW,247,13.3,16.0,68,0.00,,,0.00,Rainwise IP-100,2013-09-07 11:51:00,
2013-09-07 07:54:00,63.6,53.0,29.96,WSW,247,14.2,16.0,68,0.00,,,0.00,Rainwise IP-100,2013-09-07 11:54:00,
2013-09-07 07:55:00,63.6,53.0,29.96,West,270,14.2,16.0,67,0.00,,,0.00,Rainwise IP-100,2013-09-07 11:55:00,
2013-09-07 07:56:00,63.6,53.0,29.95,WSW,247,11.9,17.0,67,0.00,,,0.00,Rainwise IP-100,2013-09-07 11:56:00,
2013-09-07 07:58:00,63.7,53.0,29.96,WSW,247,8.4,17.0,67,0.00,,,0.00,Rainwise IP-100,2013-09-07 11:58:00,
2013-09-07 07:59:00,63.7,53.0,29.96,WSW,247,10.7,17.0,67,0.00,,,0.00,Rainwise IP-100,2013-09-07 11:59:00,
2013-09-07 08:00:00,63.7,53.0,29.96,WSW,247,11.2,17.0,67,0.00,,,0.00,Rainwise IP-100,2013-09-07 12:00:00,
2013-09-07 08:01:00,63.8,53.0,29.96,SW,225,7.9,13.0,67,0.00,,,0.00,Rainwise IP-100,2013-09-07 12:01:00,
2013-09-07 08:03:00,63.8,53.0,29.96,WSW,247,16.8,16.8,68,0.00,,,0.00,Rainwise IP-100,2013-09-07 12:03:00,
2013-09-07 08:04:00,63.9,53.0,29.96,WSW,247,13.3,18.0,68,0.00,,,0.00,Rainwise IP-100,2013-09-07 12:04:00,
2013-09-07 08:05:00,63.9,53.0,29.96,SW,225,14.9,18.0,68,0.00,,,0.00,Rainwise IP-100,2013-09-07 12:05:00,
2013-09-07 08:06:00,63.9,53.0,29.95,WSW,247,10.7,18.0,68,0.00,,,0.00,Rainwise IP-100,2013-09-07 12:06:00,
2013-09-07 08:07:00,63.9,53.0,29.95,WSW,247,10.7,18.0,68,0.00,,,0.00,Rainwise IP-100,2013-09-07 12:07:00,
2013-09-07 08:09:00,64.0,53.0,29.95,WSW,247,13.3,16.0,68,0.00,,,0.00,Rainwise IP-100,2013-09-07 12:09:00,
2013-09-07 08:10:00,64.0,53.0,29.96,WSW,247,9.8,16.0,68,0.00,,,0.00,Rainwise IP-100,2013-09-07 12:10:00,
2013-09-07 08:12:00,64.0,53.0,29.96,WSW,247,8.6,16.0,68,0.00,,,0.00,Rainwise IP-100,2013-09-07 12:12:00,
2013-09-07 08:14:00,64.0,53.0,29.95,WSW,247,12.4,15.0,68,0.00,,,0.00,Rainwise IP-100,2013-09-07 12:14:00,
2013-09-07 08:15:00,64.0,53.0,29.95,WSW,247,9.8,17.0,68,0.00,,,0.00,Rainwise IP-100,2013-09-07 12:15:00,
2013-09-07 08:16:00,64.1,53.0,29.96,WSW,247,14.9,17.0,68,0.00,,,0.00,Rainwise IP-100,2013-09-07 12:16:00,
2013-09-07 08:17:00,64.1,53.0,29.95,SW,225,14.7,17.0,68,0.00,,,0.00,Rainwise IP-100,2013-09-07 12:17:00,
2013-09-07 08:18:00,64.1,53.0,29.95,WSW,247,13.3,17.0,68,0.00,,,0.00,Rainwise IP-100,2013-09-07 12:18:00,
2013-09-07 08:20:00,64.2,53.0,29.95,WSW,247,11.9,17.0,68,0.00,,,0.00,Rainwise IP-100,2013-09-07 12:20:00,
2013-09-07 08:21:00,64.2,53.0,29.95,SW,225,11.9,17.0,68,0.00,,,0.00,Rainwise IP-100,2013-09-07 12:21:00,
2013-09-07 08:22:00,64.2,53.0,29.95,WSW,247,11.4,17.0,68,0.00,,,0.00,Rainwise IP-100,2013-09-07 12:22:00,
2013-09-07 08:23:00,64.3,53.0,29.95,WSW,247,12.6,17.0,68,0.00,,,0.00,Rainwise IP-100,2013-09-07 12:23:00,
2013-09-07 08:25:00,64.3,53.0,29.95,WSW,247,9.8,14.0,68,0.00,,,0.00,Rainwise IP-100,2013-09-07 12:25:00,
2013-09-07 08:26:00,64.3,53.0,29.95,WSW,247,18.4,18.4,68,0.00,,,0.00,Rainwise IP-100,2013-09-07 12:26:00,
2013-09-07 08:27:00,64.4,53.0,29.96,West,270,12.8,18.0,68,0.00,,,0.00,Rainwise IP-100,2013-09-07 12:27:00,
2013-09-07 08:30:00,64.4,54.0,29.95,WSW,247,11.7,18.0,69,0.00,,,0.00,Rainwise IP-100,2013-09-07 12:30:00,
2013-09-07 08:31:00,64.4,54.0,29.95,WSW,247,10.5,18.0,69,0.00,,,0.00,Rainwise IP-100,2013-09-07 12:31:00,
2013-09-07 08:32:00,64.4,54.0,29.95,WSW,247,11.4,16.0,69,0.00,,,0.00,Rainwise IP-100,2013-09-07 12:32:00,
2013-09-07 08:33:00,64.4,54.0,29.95,WSW,247,11.2,16.0,69,0.00,,,0.00,Rainwise IP-100,2013-09-07 12:33:00,
2013-09-07 08:35:00,64.4,54.0,29.95,SW,225,13.5,17.0,69,0.00,,,0.00,Rainwise IP-100,2013-09-07 12:35:00,
2013-09-07 08:37:00,64.5,53.0,29.96,WSW,247,10.7,18.0,68,0.00,,,0.00,Rainwise IP-100,2013-09-07 12:37:00,
2013-09-07 08:38:00,64.5,53.0,29.96,WSW,247,18.2,18.2,68,0.00,,,0.00,Rainwise IP-100,2013-09-07 12:38:00,
2013-09-07 08:39:00,64.4,53.0,29.96,WSW,247,11.0,19.0,68,0.00,,,0.00,Rainwise IP-100,2013-09-07 12:39:00,
2013-09-07 08:41:00,64.5,53.0,29.96,WSW,247,8.6,19.0,68,0.00,,,0.00,Rainwise IP-100,2013-09-07 12:41:00,
2013-09-07 08:43:00,64.5,53.0,29.95,WSW,247,7.9,17.0,68,0.00,,,0.00,Rainwise IP-100,2013-09-07 12:43:00,
2013-09-07 08:44:00,64.6,53.0,29.96,WSW,247,6.3,14.0,68,0.00,,,0.00,Rainwise IP-100,2013-09-07 12:44:00,
2013-09-07 08:46:00,64.6,53.0,29.95,WSW,247,12.6,16.0,68,0.00,,,0.00,Rainwise IP-100,2013-09-07 12:46:00,
2013-09-07 08:48:00,64.7,53.0,29.95,WSW,247,13.3,16.0,68,0.00,,,0.00,Rainwise IP-100,2013-09-07 12:48:00,
2013-09-07 08:49:00,64.7,53.0,29.96,WSW,247,13.5,17.0,68,0.00,,,0.00,Rainwise IP-100,2013-09-07 12:49:00,
2013-09-07 08:50:00,64.7,53.0,29.95,WSW,247,12.1,18.0,68,0.00,,,0.00,Rainwise IP-100,2013-09-07 12:50:00,
2013-09-07 08:51:00,64.8,53.0,29.96,WSW,247,11.4,18.0,68,0.00,,,0.00,Rainwise IP-100,2013-09-07 12:51:00,
2013-09-07 08:53:00,64.8,53.0,29.96,WSW,247,13.5,18.0,68,0.00,,,0.00,Rainwise IP-100,2013-09-07 12:53:00,
2013-09-07 08:54:00,64.8,53.0,29.96,WSW,247,9.1,18.0,68,0.00,,,0.00,Rainwise IP-100,2013-09-07 12:54:00,
2013-09-07 08:55:00,64.8,53.0,29.95,West,270,15.6,15.6,68,0.00,,,0.00,Rainwise IP-100,2013-09-07 12:55:00,
2013-09-07 08:56:00,64.7,53.0,29.95,West,270,18.0,18.0,67,0.00,,,0.00,Rainwise IP-100,2013-09-07 12:56:00,
2013-09-07 08:58:00,64.7,53.0,29.95,WSW,247,13.3,19.0,67,0.00,,,0.00,Rainwise IP-100,2013-09-07 12:58:00,
2013-09-07 08:59:00,64.7,53.0,29.95,West,270,12.4,19.0,67,0.00,,,0.00,Rainwise IP-100,2013-09-07 12:59:00,
2013-09-07 09:00:00,64.7,53.0,29.95,WSW,247,14.0,19.0,67,0.00,,,0.00,Rainwise IP-100,2013-09-07 13:00:00,
2013-09-07 09:01:00,64.7,53.0,29.95,West,270,13.3,19.0,67,0.00,,,0.00,Rainwise IP-100,2013-09-07 13:01:00,
2013-09-07 09:02:00,64.7,53.0,29.95,WSW,247,17.0,19.0,67,0.00,,,0.00,Rainwise IP-100,2013-09-07 13:02:00,
2013-09-07 09:04:00,64.6,53.0,29.95,WSW,247,10.5,20.0,66,0.00,,,0.00,Rainwise IP-100,2013-09-07 13:04:00,
2013-09-07 09:05:00,64.6,53.0,29.95,WNW,292,5.6,20.0,66,0.00,,,0.00,Rainwise IP-100,2013-09-07 13:05:00,
2013-09-07 09:06:00,64.7,53.0,29.96,WSW,247,11.9,20.0,66,0.00,,,0.00,Rainwise IP-100,2013-09-07 13:06:00,
2013-09-07 09:07:00,64.7,53.0,29.96,WSW,247,12.8,20.0,66,0.00,,,0.00,Rainwise IP-100,2013-09-07 13:07:00,
2013-09-07 09:09:00,64.7,53.0,29.95,WSW,247,9.8,17.0,66,0.00,,,0.00,Rainwise IP-100,2013-09-07 13:09:00,
2013-09-07 09:10:00,64.8,53.0,29.95,West,270,9.3,17.0,66,0.00,,,0.00,Rainwise IP-100,2013-09-07 13:10:00,
2013-09-07 09:12:00,64.9,53.0,29.95,WSW,247,12.8,17.0,66,0.00,,,0.00,Rainwise IP-100,2013-09-07 13:12:00,
2013-09-07 09:14:00,65.1,54.0,29.95,WSW,247,11.4,18.0,67,0.00,,,0.00,Rainwise IP-100,2013-09-07 13:14:00,
2013-09-07 09:15:00,65.1,54.0,29.95,WSW,247,10.0,18.0,67,0.00,,,0.00,Rainwise IP-100,2013-09-07 13:15:00,
2013-09-07 09:16:00,65.2,54.0,29.96,WSW,247,9.6,18.0,67,0.00,,,0.00,Rainwise IP-100,2013-09-07 13:16:00,
2013-09-07 09:17:00,65.2,54.0,29.96,WSW,247,8.6,18.0,67,0.00,,,0.00,Rainwise IP-100,2013-09-07 13:17:00,
2013-09-07 09:18:00,65.3,54.0,29.95,WSW,247,7.7,17.0,67,0.00,,,0.00,Rainwise IP-100,2013-09-07 13:18:00,
2013-09-07 09:20:00,65.4,54.0,29.95,West,270,11.7,15.0,67,0.00,,,0.00,Rainwise IP-100,2013-09-07 13:20:00,
2013-09-07 09:21:00,65.4,54.0,29.96,West,270,12.1,18.0,67,0.00,,,0.00,Rainwise IP-100,2013-09-07 13:21:00,
2013-09-07 09:22:00,65.4,54.0,29.95,WNW,292,9.8,18.0,67,0.00,,,0.00,Rainwise IP-100,2013-09-07 13:22:00,
2013-09-07 09:25:00,65.4,54.0,29.95,WSW,247,13.5,20.0,66,0.00,,,0.00,Rainwise IP-100,2013-09-07 13:25:00,
2013-09-07 09:26:00,65.4,54.0,29.95,WSW,247,11.0,20.0,66,0.00,,,0.00,Rainwise IP-100,2013-09-07 13:26:00,
2013-09-07 09:27:00,65.4,54.0,29.95,WSW,247,14.9,20.0,66,0.00,,,0.00,Rainwise IP-100,2013-09-07 13:27:00,
2013-09-07 09:31:00,65.3,53.0,29.95,West,270,11.7,20.0,65,0.00,,,0.00,Rainwise IP-100,2013-09-07 13:31:00,
2013-09-07 09:32:00,65.3,53.0,29.96,WSW,247,14.7,20.0,65,0.00,,,0.00,Rainwise IP-100,2013-09-07 13:32:00,
2013-09-07 09:35:00,65.4,53.0,29.95,WSW,247,13.5,20.0,65,0.00,,,0.00,Rainwise IP-100,2013-09-07 13:35:00,
2013-09-07 09:37:00,65.4,54.0,29.95,West,270,16.1,16.1,66,0.00,,,0.00,Rainwise IP-100,2013-09-07 13:37:00,
2013-09-07 09:38:00,65.5,54.0,29.95,SW,225,12.6,18.0,66,0.00,,,0.00,Rainwise IP-100,2013-09-07 13:38:00,
2013-09-07 09:41:00,65.6,54.0,29.95,WSW,247,14.9,18.0,66,0.00,,,0.00,Rainwise IP-100,2013-09-07 13:41:00,
2013-09-07 09:43:00,65.6,53.0,29.95,West,270,14.5,20.0,65,0.00,,,0.00,Rainwise IP-100,2013-09-07 13:43:00,
2013-09-07 09:46:00,65.6,53.0,29.95,WSW,247,14.0,20.0,65,0.00,,,0.00,Rainwise IP-100,2013-09-07 13:46:00,
2013-09-07 09:48:00,65.6,53.0,29.95,WSW,247,15.4,18.0,65,0.00,,,0.00,Rainwise IP-100,2013-09-07 13:48:00,
2013-09-07 09:53:00,65.6,53.0,29.95,WSW,247,14.0,20.0,63,0.00,,,0.00,Rainwise IP-100,2013-09-07 13:53:00,
2013-09-07 09:54:00,65.6,53.0,29.95,West,270,13.5,20.0,63,0.00,,,0.00,Rainwise IP-100,2013-09-07 13:54:00,
2013-09-07 09:57:00,65.6,53.0,29.95,WNW,292,10.3,19.0,63,0.00,,,0.00,Rainwise IP-100,2013-09-07 13:57:00,
2013-09-07 09:58:00,65.7,53.0,29.95,WSW,247,11.0,19.0,63,0.00,,,0.00,Rainwise IP-100,2013-09-07 13:58:00,
2013-09-07 09:59:00,65.7,53.0,29.95,WSW,247,13.3,19.0,63,0.00,,,0.00,Rainwise IP-100,2013-09-07 13:59:00,
2013-09-07 10:03:00,65.9,53.0,29.95,WSW,247,18.0,19.0,62,0.00,,,0.00,Rainwise IP-100,2013-09-07 14:03:00,
2013-09-07 10:04:00,65.9,53.0,29.95,WSW,247,18.4,19.0,62,0.00,,,0.00,Rainwise IP-100,2013-09-07 14:04:00,
2013-09-07 10:05:00,66.0,53.0,29.95,WSW,247,16.1,19.0,62,0.00,,,0.00,Rainwise IP-100,2013-09-07 14:05:00,
2013-09-07 10:08:00,66.0,52.0,29.95,WSW,247,20.3,20.3,61,0.00,,,0.00,Rainwise IP-100,2013-09-07 14:08:00,
2013-09-07 10:10:00,65.9,52.0,29.95,WSW,247,16.8,21.0,61,0.00,,,0.00,Rainwise IP-100,2013-09-07 14:10:00,
2013-09-07 10:11:00,66.0,51.0,29.95,WSW,247,12.6,21.0,60,0.00,,,0.00,Rainwise IP-100,2013-09-07 14:11:00,
2013-09-07 10:12:00,66.0,51.0,29.95,West,270,10.7,21.0,60,0.00,,,0.00,Rainwise IP-100,2013-09-07 14:12:00,
2013-09-07 10:14:00,66.1,51.0,29.95,WSW,247,12.4,20.0,60,0.00,,,0.00,Rainwise IP-100,2013-09-07 14:14:00,
2013-09-07 10:15:00,66.1,51.0,29.95,WSW,247,13.8,18.0,60,0.00,,,0.00,Rainwise IP-100,2013-09-07 14:15:00,
2013-09-07 10:16:00,66.2,52.0,29.95,WSW,247,9.1,16.0,60,0.00,,,0.00,Rainwise IP-100,2013-09-07 14:16:00,
2013-09-07 10:17:00,66.2,52.0,29.95,WSW,247,10.0,16.0,60,0.00,,,0.00,Rainwise IP-100,2013-09-07 14:17:00,
2013-09-07 10:19:00,66.3,51.0,29.95,WSW,247,8.9,16.0,59,0.00,,,0.00,Rainwise IP-100,2013-09-07 14:19:00,
2013-09-07 10:20:00,66.3,51.0,29.95,WSW,247,11.9,16.0,59,0.00,,,0.00,Rainwise IP-100,2013-09-07 14:20:00,
2013-09-07 10:22:00,66.4,51.0,29.94,WNW,292,17.3,17.3,59,0.00,,,0.00,Rainwise IP-100,2013-09-07 14:22:00,
2013-09-07 10:24:00,66.3,51.0,29.94,WSW,247,8.2,19.0,58,0.00,,,0.00,Rainwise IP-100,2013-09-07 14:24:00,
2013-09-07 10:25:00,66.3,51.0,29.94,WSW,247,15.4,19.0,58,0.00,,,0.00,Rainwise IP-100,2013-09-07 14:25:00,
2013-09-07 10:26:00,66.3,51.0,29.95,WSW,247,14.0,19.0,58,0.00,,,0.00,Rainwise IP-100,2013-09-07 14:26:00,
2013-09-07 10:28:00,66.3,51.0,29.95,West,270,9.6,19.0,58,0.00,,,0.00,Rainwise IP-100,2013-09-07 14:28:00,
2013-09-07 10:29:00,66.3,51.0,29.95,West,270,11.7,19.0,58,0.00,,,0.00,Rainwise IP-100,2013-09-07 14:29:00,
2013-09-07 10:30:00,66.3,51.0,29.95,WSW,247,11.0,19.0,58,0.00,,,0.00,Rainwise IP-100,2013-09-07 14:30:00,
2013-09-07 10:32:00,66.3,51.0,29.94,WSW,247,12.6,19.0,58,0.00,,,0.00,Rainwise IP-100,2013-09-07 14:32:00,
2013-09-07 10:33:00,66.3,51.0,29.94,WSW,247,15.4,19.0,58,0.00,,,0.00,Rainwise IP-100,2013-09-07 14:33:00,
2013-09-07 10:34:00,66.3,51.0,29.94,West,270,14.7,19.0,59,0.00,,,0.00,Rainwise IP-100,2013-09-07 14:34:00,
2013-09-07 10:35:00,66.2,51.0,29.94,West,270,11.4,19.0,59,0.00,,,0.00,Rainwise IP-100,2013-09-07 14:35:00,
2013-09-07 10:36:00,66.2,51.0,29.94,WSW,247,11.7,19.0,59,0.00,,,0.00,Rainwise IP-100,2013-09-07 14:36:00,
2013-09-07 10:37:00,66.3,51.0,29.94,WSW,247,16.6,19.0,59,0.00,,,0.00,Rainwise IP-100,2013-09-07 14:37:00,
2013-09-07 10:38:00,66.2,51.0,29.95,WSW,247,17.3,19.0,59,0.00,,,0.00,Rainwise IP-100,2013-09-07 14:38:00,
2013-09-07 10:39:00,66.2,51.0,29.95,WSW,247,11.7,19.0,59,0.00,,,0.00,Rainwise IP-100,2013-09-07 14:39:00,
2013-09-07 10:40:00,66.2,51.0,29.95,West,270,11.7,19.0,59,0.00,,,0.00,Rainwise IP-100,2013-09-07 14:40:00,
2013-09-07 10:41:00,66.2,51.0,29.93,WSW,247,14.0,19.0,59,0.00,,,0.00,Rainwise IP-100,2013-09-07 14:41:00,
2013-09-07 10:43:00,66.2,51.0,29.94,WSW,247,9.8,19.0,59,0.00,,,0.00,Rainwise IP-100,2013-09-07 14:43:00,
2013-09-07 10:44:00,66.2,51.0,29.94,West,270,8.2,18.0,59,0.00,,,0.00,Rainwise IP-100,2013-09-07 14:44:00,
2013-09-07 10:45:00,66.3,51.0,29.94,WSW,247,13.8,18.0,59,0.00,,,0.00,Rainwise IP-100,2013-09-07 14:45:00,
2013-09-07 10:47:00,66.3,51.0,29.94,West,270,10.5,17.0,59,0.00,,,0.00,Rainwise IP-100,2013-09-07 14:47:00,
2013-09-07 10:49:00,66.3,51.0,29.94,West,270,10.5,17.0,59,0.00,,,0.00,Rainwise IP-100,2013-09-07 14:49:00,
2013-09-07 10:50:00,66.3,51.0,29.94,WSW,247,8.9,17.0,59,0.00,,,0.00,Rainwise IP-100,2013-09-07 14:50:00,
2013-09-07 10:51:00,66.2,52.0,29.93,West,270,12.4,19.0,60,0.00,,,0.00,Rainwise IP-100,2013-09-07 14:51:00,
2013-09-07 10:52:00,66.3,51.0,29.94,WSW,247,13.1,19.0,59,0.00,,,0.00,Rainwise IP-100,2013-09-07 14:52:00,
2013-09-07 10:54:00,66.2,51.0,29.93,WSW,247,9.1,19.0,59,0.00,,,0.00,Rainwise IP-100,2013-09-07 14:54:00,
2013-09-07 10:55:00,66.2,51.0,29.93,West,270,12.8,19.0,59,0.00,,,0.00,Rainwise IP-100,2013-09-07 14:55:00,
2013-09-07 10:57:00,66.3,51.0,29.94,West,270,9.6,19.0,59,0.00,,,0.00,Rainwise IP-100,2013-09-07 14:57:00,
2013-09-07 10:59:00,66.4,51.0,29.94,WSW,247,14.9,18.0,59,0.00,,,0.00,Rainwise IP-100,2013-09-07 14:59:00,
2013-09-07 11:00:00,66.4,51.0,29.93,West,270,13.3,18.0,59,0.00,,,0.00,Rainwise IP-100,2013-09-07 15:00:00,
2013-09-07 11:01:00,66.4,51.0,29.93,West,270,16.1,19.0,59,0.00,,,0.00,Rainwise IP-100,2013-09-07 15:01:00,
2013-09-07 11:02:00,66.4,51.0,29.94,WNW,292,12.1,19.0,59,0.00,,,0.00,Rainwise IP-100,2013-09-07 15:02:00,
2013-09-07 11:03:00,66.4,51.0,29.94,WSW,247,10.7,19.0,59,0.00,,,0.00,Rainwise IP-100,2013-09-07 15:03:00,
2013-09-07 11:05:00,66.5,52.0,29.93,WSW,247,19.8,21.0,59,0.00,,,0.00,Rainwise IP-100,2013-09-07 15:05:00,
2013-09-07 11:06:00,66.4,51.0,29.93,WSW,247,13.1,21.0,59,0.00,,,0.00,Rainwise IP-100,2013-09-07 15:06:00,
2013-09-07 11:07:00,66.4,51.0,29.93,WSW,247,10.7,21.0,59,0.00,,,0.00,Rainwise IP-100,2013-09-07 15:07:00,
2013-09-07 11:08:00,66.3,51.0,29.93,WSW,247,14.5,21.0,59,0.00,,,0.00,Rainwise IP-100,2013-09-07 15:08:00,
2013-09-07 11:10:00,66.4,51.0,29.94,WNW,292,8.2,19.0,59,0.00,,,0.00,Rainwise IP-100,2013-09-07 15:10:00,
2013-09-07 11:11:00,66.4,51.0,29.93,WSW,247,15.9,19.0,59,0.00,,,0.00,Rainwise IP-100,2013-09-07 15:11:00,
2013-09-07 11:12:00,66.4,51.0,29.93,WNW,292,11.9,18.0,59,0.00,,,0.00,Rainwise IP-100,2013-09-07 15:12:00,
2013-09-07 11:13:00,66.4,52.0,29.94,West,270,14.0,18.0,60,0.00,,,0.00,Rainwise IP-100,2013-09-07 15:13:00,
2013-09-07 11:17:00,66.4,53.0,29.94,WNW,292,11.7,19.0,63,0.00,,,0.00,Rainwise IP-100,2013-09-07 15:17:00,
2013-09-07 11:18:00,66.4,54.0,29.93,WNW,292,14.9,19.0,64,0.00,,,0.00,Rainwise IP-100,2013-09-07 15:18:00,
2013-09-07 11:19:00,66.3,54.0,29.94,WNW,292,15.4,19.0,64,0.00,,,0.00,Rainwise IP-100,2013-09-07 15:19:00,
2013-09-07 11:22:00,66.3,54.0,29.94,West,270,14.5,17.0,66,0.00,,,0.00,Rainwise IP-100,2013-09-07 15:22:00,
2013-09-07 11:23:00,66.4,54.0,29.94,West,270,12.1,17.0,66,0.00,,,0.00,Rainwise IP-100,2013-09-07 15:23:00,
2013-09-07 11:24:00,66.4,54.0,29.94,WSW,247,11.4,17.0,66,0.00,,,0.00,Rainwise IP-100,2013-09-07 15:24:00,
2013-09-07 11:25:00,66.4,54.0,29.94,West,270,7.5,17.0,66,0.00,,,0.00,Rainwise IP-100,2013-09-07 15:25:00,
2013-09-07 11:27:00,66.5,55.0,29.94,West,270,9.6,16.0,66,0.00,,,0.00,Rainwise IP-100,2013-09-07 15:27:00,
2013-09-07 11:28:00,66.5,55.0,29.94,West,270,10.0,16.0,66,0.00,,,0.00,Rainwise IP-100,2013-09-07 15:28:00,
2013-09-07 11:29:00,66.5,55.0,29.93,West,270,7.5,16.0,66,0.00,,,0.00,Rainwise IP-100,2013-09-07 15:29:00,
2013-09-07 11:30:00,66.6,55.0,29.93,West,270,10.0,16.0,66,0.00,,,0.00,Rainwise IP-100,2013-09-07 15:30:00,
2013-09-07 11:32:00,66.6,54.0,29.94,WSW,247,10.3,18.0,65,0.00,,,0.00,Rainwise IP-100,2013-09-07 15:32:00,
2013-09-07 11:33:00,66.6,54.0,29.94,West,270,12.1,18.0,65,0.00,,,0.00,Rainwise IP-100,2013-09-07 15:33:00,
2013-09-07 11:34:00,66.6,54.0,29.94,WSW,247,9.3,18.0,65,0.00,,,0.00,Rainwise IP-100,2013-09-07 15:34:00,
2013-09-07 11:35:00,66.6,54.0,29.94,West,270,11.2,18.0,65,0.00,,,0.00,Rainwise IP-100,2013-09-07 15:35:00,
2013-09-07 11:37:00,66.6,54.0,29.94,West,270,11.7,17.0,65,0.00,,,0.00,Rainwise IP-100,2013-09-07 15:37:00,
2013-09-07 11:38:00,66.7,55.0,29.93,WSW,247,5.1,17.0,66,0.00,,,0.00,Rainwise IP-100,2013-09-07 15:38:00,
2013-09-07 11:39:00,66.7,55.0,29.93,West,270,12.6,16.0,66,0.00,,,0.00,Rainwise IP-100,2013-09-07 15:39:00,
2013-09-07 11:40:00,66.7,55.0,29.93,WSW,247,14.7,17.0,66,0.00,,,0.00,Rainwise IP-100,2013-09-07 15:40:00,
2013-09-07 11:42:00,66.7,55.0,29.94,WSW,247,12.8,17.0,66,0.00,,,0.00,Rainwise IP-100,2013-09-07 15:42:00,
2013-09-07 11:43:00,66.7,55.0,29.93,West,270,10.7,17.0,66,0.00,,,0.00,Rainwise IP-100,2013-09-07 15:43:00,
2013-09-07 11:44:00,66.7,55.0,29.94,West,270,7.2,17.0,66,0.00,,,0.00,Rainwise IP-100,2013-09-07 15:44:00,
2013-09-07 11:45:00,66.8,55.0,29.93,WSW,247,11.2,15.0,66,0.00,,,0.00,Rainwise IP-100,2013-09-07 15:45:00,
2013-09-07 11:47:00,66.8,55.0,29.93,WSW,247,14.2,16.0,67,0.00,,,0.00,Rainwise IP-100,2013-09-07 15:47:00,
2013-09-07 11:48:00,66.7,55.0,29.93,West,270,13.5,16.0,67,0.00,,,0.00,Rainwise IP-100,2013-09-07 15:48:00,
2013-09-07 11:50:00,66.5,55.0,29.93,West,270,12.1,17.0,67,0.00,,,0.00,Rainwise IP-100,2013-09-07 15:50:00,
2013-09-07 11:51:00,66.5,55.0,29.93,WSW,247,14.0,17.0,67,0.00,,,0.00,Rainwise IP-100,2013-09-07 15:51:00,
2013-09-07 11:53:00,66.5,55.0,29.92,West,270,14.2,17.0,67,0.00,,,0.00,Rainwise IP-100,2013-09-07 15:53:00,
2013-09-07 11:55:00,66.3,55.0,29.93,West,270,13.1,18.0,67,0.00,,,0.00,Rainwise IP-100,2013-09-07 15:55:00,
2013-09-07 11:56:00,66.2,55.0,29.93,West,270,11.9,18.0,67,0.00,,,0.00,Rainwise IP-100,2013-09-07 15:56:00,
2013-09-07 11:58:00,66.2,55.0,29.92,West,270,15.6,18.0,68,0.00,,,0.00,Rainwise IP-100,2013-09-07 15:58:00,
2013-09-07 12:00:00,66.3,55.0,29.93,West,270,14.2,17.0,68,0.00,,,0.00,Rainwise IP-100,2013-09-07 16:00:00,
2013-09-07 12:01:00,66.3,55.0,29.92,WSW,247,10.7,17.0,68,0.00,,,0.00,Rainwise IP-100,2013-09-07 16:01:00,
2013-09-07 12:02:00,66.3,55.0,29.92,WSW,247,12.8,17.0,68,0.00,,,0.00,Rainwise IP-100,2013-09-07 16:02:00,
2013-09-07 12:03:00,66.3,55.0,29.92,WSW,247,11.7,17.0,68,0.00,,,0.00,Rainwise IP-100,2013-09-07 16:03:00,
2013-09-07 12:05:00,66.4,55.0,29.92,WSW,247,13.3,18.0,68,0.00,,,0.00,Rainwise IP-100,2013-09-07 16:05:00,
2013-09-07 12:06:00,66.4,55.0,29.92,West,270,7.0,18.0,68,0.00,,,0.00,Rainwise IP-100,2013-09-07 16:06:00,
2013-09-07 12:07:00,66.4,55.0,29.92,WSW,247,14.5,18.0,68,0.00,,,0.00,Rainwise IP-100,2013-09-07 16:07:00,
2013-09-07 12:08:00,66.4,55.0,29.92,WSW,247,14.5,18.0,68,0.00,,,0.00,Rainwise IP-100,2013-09-07 16:08:00,
2013-09-07 12:11:00,66.5,56.0,29.92,West,270,13.8,17.0,68,0.00,,,0.00,Rainwise IP-100,2013-09-07 16:11:00,
2013-09-07 12:12:00,66.5,56.0,29.92,WNW,292,14.0,17.0,68,0.00,,,0.00,Rainwise IP-100,2013-09-07 16:12:00,
2013-09-07 12:13:00,66.6,56.0,29.92,WSW,247,8.2,17.0,68,0.00,,,0.00,Rainwise IP-100,2013-09-07 16:13:00,
2013-09-07 12:14:00,66.7,56.0,29.92,WSW,247,17.0,18.0,68,0.00,,,0.00,Rainwise IP-100,2013-09-07 16:14:00,
2013-09-07 12:16:00,66.7,55.0,29.91,West,270,14.2,20.0,67,0.00,,,0.00,Rainwise IP-100,2013-09-07 16:16:00,
2013-09-07 12:18:00,66.9,56.0,29.92,WSW,247,14.2,20.0,67,0.00,,,0.00,Rainwise IP-100,2013-09-07 16:18:00,
2013-09-07 12:19:00,66.9,56.0,29.92,West,270,13.5,20.0,67,0.00,,,0.00,Rainwise IP-100,2013-09-07 16:19:00,
2013-09-07 12:21:00,66.9,56.0,29.91,WSW,247,9.8,18.0,67,0.00,,,0.00,Rainwise IP-100,2013-09-07 16:21:00,
2013-09-07 12:23:00,67.0,56.0,29.92,WSW,247,12.8,18.0,67,0.00,,,0.00,Rainwise IP-100,2013-09-07 16:23:00,
2013-09-07 12:24:00,67.0,56.0,29.92,WSW,247,13.3,19.0,67,0.00,,,0.00,Rainwise IP-100,2013-09-07 16:24:00,
2013-09-07 12:25:00,67.0,56.0,29.92,WSW,247,13.8,19.0,67,0.00,,,0.00,Rainwise IP-100,2013-09-07 16:25:00,
2013-09-07 12:26:00,67.0,56.0,29.92,WSW,247,11.4,19.0,67,0.00,,,0.00,Rainwise IP-100,2013-09-07 16:26:00,
2013-09-07 12:28:00,67.0,56.0,29.91,WSW,247,14.5,19.0,67,0.00,,,0.00,Rainwise IP-100,2013-09-07 16:28:00,
2013-09-07 12:29:00,66.9,55.0,29.92,West,270,11.2,19.0,66,0.00,,,0.00,Rainwise IP-100,2013-09-07 16:29:00,
2013-09-07 12:30:00,67.0,55.0,29.91,WSW,247,13.8,17.0,66,0.00,,,0.00,Rainwise IP-100,2013-09-07 16:30:00,
2013-09-07 12:31:00,67.0,55.0,29.91,WSW,247,8.9,17.0,66,0.00,,,0.00,Rainwise IP-100,2013-09-07 16:31:00,
2013-09-07 12:33:00,67.2,55.0,29.91,West,270,13.3,17.0,65,0.00,,,0.00,Rainwise IP-100,2013-09-07 16:33:00,
2013-09-07 12:34:00,67.2,55.0,29.91,West,270,12.4,17.0,65,0.00,,,0.00,Rainwise IP-100,2013-09-07 16:34:00,
2013-09-07 12:35:00,67.3,55.0,29.91,West,270,11.9,17.0,65,0.00,,,0.00,Rainwise IP-100,2013-09-07 16:35:00,
2013-09-07 12:36:00,67.4,55.0,29.91,WSW,247,12.4,17.0,64,0.00,,,0.00,Rainwise IP-100,2013-09-07 16:36:00,
2013-09-07 12:39:00,67.6,54.0,29.91,WSW,247,11.9,19.0,62,0.00,,,0.00,Rainwise IP-100,2013-09-07 16:39:00,
2013-09-07 12:40:00,67.7,53.0,29.91,West,270,10.3,21.0,61,0.00,,,0.00,Rainwise IP-100,2013-09-07 16:40:00,
2013-09-07 12:42:00,67.8,53.0,29.91,West,270,10.0,21.0,61,0.00,,,0.00,Rainwise IP-100,2013-09-07 16:42:00,
2013-09-07 12:44:00,67.7,53.0,29.91,WSW,247,14.0,18.0,60,0.00,,,0.00,Rainwise IP-100,2013-09-07 16:44:00,
2013-09-07 12:45:00,67.7,53.0,29.91,WSW,247,15.2,18.0,59,0.00,,,0.00,Rainwise IP-100,2013-09-07 16:45:00,
2013-09-07 12:46:00,67.8,53.0,29.91,WSW,247,10.5,18.0,59,0.00,,,0.00,Rainwise IP-100,2013-09-07 16:46:00,
2013-09-07 12:49:00,68.0,53.0,29.91,WSW,247,15.4,18.0,59,0.00,,,0.00,Rainwise IP-100,2013-09-07 16:49:00,
2013-09-07 12:53:00,68.2,53.0,29.90,SW,225,18.0,21.0,59,0.00,,,0.00,Rainwise IP-100,2013-09-07 16:53:00,
2013-09-07 12:54:00,68.3,53.0,29.90,WSW,247,13.1,21.0,59,0.00,,,0.00,Rainwise IP-100,2013-09-07 16:54:00,
2013-09-07 12:55:00,68.3,53.0,29.90,WSW,247,14.5,21.0,59,0.00,,,0.00,Rainwise IP-100,2013-09-07 16:55:00,
2013-09-07 12:59:00,68.0,53.0,29.90,WSW,247,19.8,21.0,60,0.00,,,0.00,Rainwise IP-100,2013-09-07 16:59:00,
2013-09-07 13:00:00,67.9,53.0,29.90,SW,225,17.0,21.0,60,0.00,,,0.00,Rainwise IP-100,2013-09-07 17:00:00,
2013-09-07 13:01:00,67.8,53.0,29.90,WSW,247,21.2,21.2,60,0.00,,,0.00,Rainwise IP-100,2013-09-07 17:01:00,
2013-09-07 13:03:00,67.5,53.0,29.90,SW,225,15.6,21.0,60,0.00,,,0.00,Rainwise IP-100,2013-09-07 17:03:00,
2013-09-07 13:05:00,67.3,53.0,29.90,WSW,247,16.6,21.0,60,0.00,,,0.00,Rainwise IP-100,2013-09-07 17:05:00,
2013-09-07 13:06:00,67.2,53.0,29.90,WSW,247,16.1,21.0,60,0.00,,,0.00,Rainwise IP-100,2013-09-07 17:06:00,
2013-09-07 13:08:00,67.1,53.0,29.90,SW,225,18.9,20.0,60,0.00,,,0.00,Rainwise IP-100,2013-09-07 17:08:00,
2013-09-07 13:09:00,67.0,53.0,29.90,WSW,247,12.1,20.0,60,0.00,,,0.00,Rainwise IP-100,2013-09-07 17:09:00,
2013-09-07 13:10:00,67.0,53.0,29.90,WSW,247,13.3,20.0,60,0.00,,,0.00,Rainwise IP-100,2013-09-07 17:10:00,
2013-09-07 13:11:00,66.9,53.0,29.90,SW,225,14.7,20.0,61,0.00,,,0.00,Rainwise IP-100,2013-09-07 17:11:00,
2013-09-07 13:13:00,66.9,53.0,29.89,WSW,247,13.5,20.0,61,0.00,,,0.00,Rainwise IP-100,2013-09-07 17:13:00,
2013-09-07 13:15:00,67.0,53.0,29.89,WSW,247,19.1,20.0,61,0.00,,,0.00,Rainwise IP-100,2013-09-07 17:15:00,
2013-09-07 13:16:00,67.0,53.0,29.89,WSW,247,17.3,20.0,61,0.00,,,0.00,Rainwise IP-100,2013-09-07 17:16:00,
2013-09-07 13:20:00,66.9,53.0,29.89,SW,225,18.0,20.0,61,0.00,,,0.00,Rainwise IP-100,2013-09-07 17:20:00,
2013-09-07 13:21:00,66.9,53.0,29.89,WSW,247,14.7,20.0,61,0.00,,,0.00,Rainwise IP-100,2013-09-07 17:21:00,
2013-09-07 13:25:00,67.2,53.0,29.89,WSW,247,16.1,20.0,61,0.00,,,0.00,Rainwise IP-100,2013-09-07 17:25:00,
2013-09-07 13:26:00,67.2,53.0,29.89,WSW,247,16.8,20.0,61,0.00,,,0.00,Rainwise IP-100,2013-09-07 17:26:00,
2013-09-07 13:27:00,67.3,53.0,29.89,SW,225,18.9,20.0,60,0.00,,,0.00,Rainwise IP-100,2013-09-07 17:27:00,
2013-09-07 13:30:00,67.4,53.0,29.89,WSW,247,13.3,23.0,60,0.00,,,0.00,Rainwise IP-100,2013-09-07 17:30:00,
2013-09-07 13:31:00,67.4,53.0,29.89,WSW,247,18.7,23.0,60,0.00,,,0.00,Rainwise IP-100,2013-09-07 17:31:00,
2013-09-07 13:32:00,67.5,53.0,29.89,SW,225,14.5,23.0,60,0.00,,,0.00,Rainwise IP-100,2013-09-07 17:32:00,
2013-09-07 13:33:00,67.5,53.0,29.88,WSW,247,15.6,22.0,60,0.00,,,0.00,Rainwise IP-100,2013-09-07 17:33:00,
2013-09-07 13:36:00,67.5,53.0,29.89,SW,225,17.5,19.0,60,0.00,,,0.00,Rainwise IP-100,2013-09-07 17:36:00,
2013-09-07 13:37:00,67.5,53.0,29.89,SW,225,17.7,20.0,60,0.00,,,0.00,Rainwise IP-100,2013-09-07 17:37:00,
2013-09-07 13:41:00,67.6,53.0,29.88,SW,225,15.4,23.0,60,0.00,,,0.00,Rainwise IP-100,2013-09-07 17:41:00,
2013-09-07 13:42:00,67.6,53.0,29.88,SW,225,19.1,23.0,60,0.00,,,0.00,Rainwise IP-100,2013-09-07 17:42:00,
2013-09-07 13:43:00,67.5,53.0,29.88,WSW,247,14.5,23.0,60,0.00,,,0.00,Rainwise IP-100,2013-09-07 17:43:00,
2013-09-07 13:47:00,67.4,53.0,29.89,SW,225,22.4,22.4,60,0.00,,,0.00,Rainwise IP-100,2013-09-07 17:47:00,
2013-09-07 13:48:00,67.4,53.0,29.88,SW,225,16.1,23.0,60,0.00,,,0.00,Rainwise IP-100,2013-09-07 17:48:00,
2013-09-07 13:49:00,67.4,53.0,29.88,WSW,247,15.4,23.0,60,0.00,,,0.00,Rainwise IP-100,2013-09-07 17:49:00,
2013-09-07 13:52:00,67.3,53.0,29.88,SW,225,18.9,24.0,60,0.00,,,0.00,Rainwise IP-100,2013-09-07 17:52:00,
2013-09-07 13:53:00,67.3,53.0,29.88,SW,225,20.5,24.0,60,0.00,,,0.00,Rainwise IP-100,2013-09-07 17:53:00,
2013-09-07 13:54:00,67.3,53.0,29.88,SW,225,14.0,24.0,60,0.00,,,0.00,Rainwise IP-100,2013-09-07 17:54:00,
2013-09-07 13:57:00,67.4,53.0,29.88,WSW,247,17.7,23.0,60,0.00,,,0.00,Rainwise IP-100,2013-09-07 17:57:00,
2013-09-07 13:58:00,67.4,53.0,29.88,WSW,247,20.3,21.0,60,0.00,,,0.00,Rainwise IP-100,2013-09-07 17:58:00,
2013-09-07 13:59:00,67.5,53.0,29.87,WSW,247,17.5,20.0,60,0.00,,,0.00,Rainwise IP-100,2013-09-07 17:59:00,
2013-09-07 14:01:00,67.5,53.0,29.88,SW,225,19.1,20.0,60,0.00,,,0.00,Rainwise IP-100,2013-09-07 18:01:00,
2013-09-07 14:02:00,67.5,53.0,29.87,SW,225,19.4,23.0,60,0.00,,,0.00,Rainwise IP-100,2013-09-07 18:02:00,
2013-09-07 14:03:00,67.5,53.0,29.87,SW,225,18.4,23.0,60,0.00,,,0.00,Rainwise IP-100,2013-09-07 18:03:00,
2013-09-07 14:06:00,67.6,53.0,29.87,SW,225,17.0,23.0,59,0.00,,,0.00,Rainwise IP-100,2013-09-07 18:06:00,
2013-09-07 14:08:00,67.5,52.0,29.88,SW,225,16.1,24.0,58,0.00,,,0.00,Rainwise IP-100,2013-09-07 18:08:00,
2013-09-07 14:09:00,67.6,52.0,29.87,SW,225,16.6,24.0,58,0.00,,,0.00,Rainwise IP-100,2013-09-07 18:09:00,
2013-09-07 14:11:00,67.5,52.0,29.87,WSW,247,21.7,25.0,58,0.00,,,0.00,Rainwise IP-100,2013-09-07 18:11:00,
2013-09-07 14:13:00,67.5,52.0,29.87,SW,225,19.4,25.0,57,0.00,,,0.00,Rainwise IP-100,2013-09-07 18:13:00,
2013-09-07 14:14:00,67.5,52.0,29.87,WSW,247,21.9,25.0,57,0.00,,,0.00,Rainwise IP-100,2013-09-07 18:14:00,
2013-09-07 14:15:00,67.4,52.0,29.86,WSW,247,22.9,25.0,57,0.00,,,0.00,Rainwise IP-100,2013-09-07 18:15:00,
2013-09-07 14:16:00,67.4,52.0,29.87,WSW,247,21.7,25.0,57,0.00,,,0.00,Rainwise IP-100,2013-09-07 18:16:00,
2013-09-07 14:17:00,67.4,52.0,29.87,SW,225,22.4,25.0,57,0.00,,,0.00,Rainwise IP-100,2013-09-07 18:17:00,
2013-09-07 14:18:00,67.3,51.0,29.87,SW,225,15.4,25.0,57,0.00,,,0.00,Rainwise IP-100,2013-09-07 18:18:00,
2013-09-07 14:20:00,67.3,51.0,29.87,WSW,247,16.1,25.0,57,0.00,,,0.00,Rainwise IP-100,2013-09-07 18:20:00,
2013-09-07 14:21:00,67.3,51.0,29.86,WSW,247,20.8,25.0,57,0.00,,,0.00,Rainwise IP-100,2013-09-07 18:21:00,
2013-09-07 14:22:00,67.3,51.0,29.86,WSW,247,21.5,25.0,57,0.00,,,0.00,Rainwise IP-100,2013-09-07 18:22:00,
2013-09-07 14:23:00,67.3,51.0,29.87,WSW,247,13.1,24.0,57,0.00,,,0.00,Rainwise IP-100,2013-09-07 18:23:00,
2013-09-07 14:25:00,67.3,51.0,29.87,WSW,247,24.2,26.0,57,0.00,,,0.00,Rainwise IP-100,2013-09-07 18:25:00,
2013-09-07 14:26:00,67.4,52.0,29.86,WSW,247,18.9,26.0,57,0.00,,,0.00,Rainwise IP-100,2013-09-07 18:26:00,
2013-09-07 14:27:00,67.4,52.0,29.86,WSW,247,20.1,26.0,57,0.00,,,0.00,Rainwise IP-100,2013-09-07 18:27:00,
2013-09-07 14:29:00,67.4,52.0,29.86,WSW,247,17.5,26.0,57,0.00,,,0.00,Rainwise IP-100,2013-09-07 18:29:00,
2013-09-07 14:30:00,67.4,52.0,29.85,SW,225,16.3,25.0,57,0.00,,,0.00,Rainwise IP-100,2013-09-07 18:30:00,
2013-09-07 14:32:00,67.4,52.0,29.86,WSW,247,19.6,25.0,58,0.00,,,0.00,Rainwise IP-100,2013-09-07 18:32:00,
2013-09-07 14:34:00,67.4,52.0,29.85,WSW,247,16.3,24.0,58,0.00,,,0.00,Rainwise IP-100,2013-09-07 18:34:00,
2013-09-07 14:35:00,67.4,52.0,29.86,SW,225,21.5,23.0,58,0.00,,,0.00,Rainwise IP-100,2013-09-07 18:35:00,
2013-09-07 14:36:00,67.3,53.0,29.86,SW,225,19.8,23.0,59,0.00,,,0.00,Rainwise IP-100,2013-09-07 18:36:00,
2013-09-07 14:38:00,67.3,53.0,29.86,SSW,202,17.7,25.0,61,0.00,,,0.00,Rainwise IP-100,2013-09-07 18:38:00,
2013-09-07 14:39:00,67.3,53.0,29.86,WSW,247,23.1,25.0,61,0.00,,,0.00,Rainwise IP-100,2013-09-07 18:39:00,
2013-09-07 14:40:00,67.3,53.0,29.85,WSW,247,19.1,25.0,61,0.00,,,0.00,Rainwise IP-100,2013-09-07 18:40:00,
2013-09-07 14:41:00,67.3,53.0,29.85,SW,225,17.3,25.0,61,0.00,,,0.00,Rainwise IP-100,2013-09-07 18:41:00,
2013-09-07 14:43:00,67.3,53.0,29.86,WSW,247,19.4,24.0,61,0.00,,,0.00,Rainwise IP-100,2013-09-07 18:43:00,
2013-09-07 14:44:00,67.3,53.0,29.86,WSW,247,19.8,24.0,61,0.00,,,0.00,Rainwise IP-100,2013-09-07 18:44:00,
2013-09-07 14:45:00,67.3,53.0,29.85,WSW,247,20.5,24.0,61,0.00,,,0.00,Rainwise IP-100,2013-09-07 18:45:00,
2013-09-07 14:47:00,67.2,53.0,29.85,WSW,247,22.6,24.0,60,0.00,,,0.00,Rainwise IP-100,2013-09-07 18:47:00,
2013-09-07 14:48:00,67.2,53.0,29.85,WSW,247,19.8,25.0,60,0.00,,,0.00,Rainwise IP-100,2013-09-07 18:48:00,
2013-09-07 14:49:00,67.2,53.0,29.86,SW,225,19.6,25.0,60,0.00,,,0.00,Rainwise IP-100,2013-09-07 18:49:00,
2013-09-07 14:51:00,67.3,53.0,29.86,WSW,247,16.1,25.0,60,0.00,,,0.00,Rainwise IP-100,2013-09-07 18:51:00,
2013-09-07 14:53:00,67.3,53.0,29.85,WSW,247,21.9,24.0,60,0.00,,,0.00,Rainwise IP-100,2013-09-07 18:53:00,
2013-09-07 14:54:00,67.3,53.0,29.85,SW,225,21.9,25.0,59,0.00,,,0.00,Rainwise IP-100,2013-09-07 18:54:00,
2013-09-07 14:56:00,67.3,53.0,29.85,WSW,247,17.5,25.0,59,0.00,,,0.00,Rainwise IP-100,2013-09-07 18:56:00,
2013-09-07 14:57:00,67.3,53.0,29.85,WSW,247,16.6,25.0,59,0.00,,,0.00,Rainwise IP-100,2013-09-07 18:57:00,
2013-09-07 14:58:00,67.3,53.0,29.86,WSW,247,16.1,25.0,59,0.00,,,0.00,Rainwise IP-100,2013-09-07 18:58:00,
2013-09-07 14:59:00,67.3,53.0,29.86,SW,225,21.0,25.0,59,0.00,,,0.00,Rainwise IP-100,2013-09-07 18:59:00,
2013-09-07 15:00:00,67.3,53.0,29.85,SW,225,18.7,25.0,59,0.00,,,0.00,Rainwise IP-100,2013-09-07 19:00:00,
2013-09-07 15:01:00,67.2,53.0,29.85,WSW,247,21.0,23.0,59,0.00,,,0.00,Rainwise IP-100,2013-09-07 19:01:00,
2013-09-07 15:02:00,67.2,53.0,29.85,WSW,247,18.2,23.0,59,0.00,,,0.00,Rainwise IP-100,2013-09-07 19:02:00,
2013-09-07 15:04:00,67.2,53.0,29.85,SW,225,14.5,23.0,60,0.00,,,0.00,Rainwise IP-100,2013-09-07 19:04:00,
2013-09-07 15:05:00,67.2,53.0,29.85,WSW,247,14.0,23.0,60,0.00,,,0.00,Rainwise IP-100,2013-09-07 19:05:00,
2013-09-07 15:06:00,67.2,53.0,29.85,WSW,247,15.9,23.0,60,0.00,,,0.00,Rainwise IP-100,2013-09-07 19:06:00,
2013-09-07 15:09:00,67.3,53.0,29.85,WSW,247,20.3,23.0,61,0.00,,,0.00,Rainwise IP-100,2013-09-07 19:09:00,
2013-09-07 15:10:00,67.3,53.0,29.85,WSW,247,23.6,23.6,61,0.00,,,0.00,Rainwise IP-100,2013-09-07 19:10:00,
2013-09-07 15:11:00,67.3,53.0,29.85,WSW,247,21.2,23.0,61,0.00,,,0.00,Rainwise IP-100,2013-09-07 19:11:00,
2013-09-07 15:12:00,67.3,53.0,29.85,WSW,247,16.8,23.0,61,0.00,,,0.00,Rainwise IP-100,2013-09-07 19:12:00,
2013-09-07 15:14:00,67.3,53.0,29.85,SW,225,15.4,23.0,61,0.00,,,0.00,Rainwise IP-100,2013-09-07 19:14:00,
2013-09-07 15:15:00,67.4,53.0,29.85,WSW,247,18.9,22.0,61,0.00,,,0.00,Rainwise IP-100,2013-09-07 19:15:00,
2013-09-07 15:17:00,67.5,54.0,29.85,WSW,247,14.7,23.0,62,0.00,,,0.00,Rainwise IP-100,2013-09-07 19:17:00,
2013-09-07 15:20:00,67.4,54.0,29.85,WSW,247,16.1,23.0,62,0.00,,,0.00,Rainwise IP-100,2013-09-07 19:20:00,
2013-09-07 15:22:00,67.5,54.0,29.85,WSW,247,16.6,23.0,62,0.00,,,0.00,Rainwise IP-100,2013-09-07 19:22:00,
2013-09-07 15:23:00,67.5,54.0,29.85,SW,225,16.6,23.0,62,0.00,,,0.00,Rainwise IP-100,2013-09-07 19:23:00,
2013-09-07 15:25:00,67.5,54.0,29.85,SW,225,17.7,23.0,62,0.00,,,0.00,Rainwise IP-100,2013-09-07 19:25:00,
2013-09-07 15:26:00,67.5,54.0,29.85,WSW,247,17.3,23.0,63,0.00,,,0.00,Rainwise IP-100,2013-09-07 19:26:00,
2013-09-07 15:27:00,67.5,54.0,29.85,WSW,247,18.9,24.0,63,0.00,,,0.00,Rainwise IP-100,2013-09-07 19:27:00,
2013-09-07 15:30:00,67.4,54.0,29.85,WSW,247,14.5,24.0,63,0.00,,,0.00,Rainwise IP-100,2013-09-07 19:30:00,
2013-09-07 15:31:00,67.3,54.0,29.85,SW,225,17.3,24.0,63,0.00,,,0.00,Rainwise IP-100,2013-09-07 19:31:00,
2013-09-07 15:32:00,67.3,54.0,29.85,SW,225,18.4,22.0,63,0.00,,,0.00,Rainwise IP-100,2013-09-07 19:32:00,
2013-09-07 15:33:00,67.2,54.0,29.85,SW,225,18.7,22.0,64,0.00,,,0.00,Rainwise IP-100,2013-09-07 19:33:00,
2013-09-07 15:35:00,67.1,54.0,29.85,WSW,247,20.5,22.0,64,0.00,,,0.00,Rainwise IP-100,2013-09-07 19:35:00,
2013-09-07 15:37:00,67.0,55.0,29.84,SW,225,19.8,22.0,65,0.00,,,0.00,Rainwise IP-100,2013-09-07 19:37:00,
2013-09-07 15:38:00,67.0,55.0,29.84,WSW,247,19.8,23.0,65,0.00,,,0.00,Rainwise IP-100,2013-09-07 19:38:00,
2013-09-07 15:40:00,67.0,55.0,29.85,WSW,247,18.7,23.0,65,0.00,,,0.00,Rainwise IP-100,2013-09-07 19:40:00,
2013-09-07 15:42:00,67.0,54.0,29.85,WSW,247,16.1,23.0,64,0.00,,,0.00,Rainwise IP-100,2013-09-07 19:42:00,
2013-09-07 15:43:00,67.0,54.0,29.85,WSW,247,11.7,23.0,64,0.00,,,0.00,Rainwise IP-100,2013-09-07 19:43:00,
2013-09-07 15:44:00,67.0,54.0,29.85,SW,225,16.6,23.0,64,0.00,,,0.00,Rainwise IP-100,2013-09-07 19:44:00,
2013-09-07 15:46:00,67.0,54.0,29.85,WSW,247,15.2,21.0,64,0.00,,,0.00,Rainwise IP-100,2013-09-07 19:46:00,
2013-09-07 15:48:00,67.0,54.0,29.85,WSW,247,20.1,24.0,64,0.00,,,0.00,Rainwise IP-100,2013-09-07 19:48:00,
2013-09-07 15:49:00,66.9,54.0,29.85,WSW,247,18.9,24.0,64,0.00,,,0.00,Rainwise IP-100,2013-09-07 19:49:00,
2013-09-07 15:50:00,66.9,54.0,29.85,WSW,247,17.5,24.0,64,0.00,,,0.00,Rainwise IP-100,2013-09-07 19:50:00,
2013-09-07 15:51:00,66.9,55.0,29.85,WSW,247,17.0,24.0,65,0.00,,,0.00,Rainwise IP-100,2013-09-07 19:51:00,
2013-09-07 15:53:00,66.8,54.0,29.85,WSW,247,10.7,21.0,65,0.00,,,0.00,Rainwise IP-100,2013-09-07 19:53:00,
2013-09-07 15:55:00,66.8,54.0,29.85,SW,225,9.3,20.0,65,0.00,,,0.00,Rainwise IP-100,2013-09-07 19:55:00,
2013-09-07 15:56:00,66.8,55.0,29.85,WSW,247,17.7,20.0,66,0.00,,,0.00,Rainwise IP-100,2013-09-07 19:56:00,
2013-09-07 15:57:00,66.8,55.0,29.84,WSW,247,16.6,20.0,66,0.00,,,0.00,Rainwise IP-100,2013-09-07 19:57:00,
2013-09-07 15:58:00,66.8,55.0,29.85,WSW,247,13.8,21.0,66,0.00,,,0.00,Rainwise IP-100,2013-09-07 19:58:00,
2013-09-07 16:01:00,66.9,55.0,29.85,WSW,247,16.3,21.0,66,0.00,,,0.00,Rainwise IP-100,2013-09-07 20:01:00,
2013-09-07 16:02:00,66.9,55.0,29.85,WSW,247,17.3,21.0,66,0.00,,,0.00,Rainwise IP-100,2013-09-07 20:02:00,
2013-09-07 16:04:00,66.9,56.0,29.85,SW,225,15.2,19.0,67,0.00,,,0.00,Rainwise IP-100,2013-09-07 20:04:00,
2013-09-07 16:06:00,66.9,56.0,29.85,WSW,247,12.4,20.0,67,0.00,,,0.00,Rainwise IP-100,2013-09-07 20:06:00,
2013-09-07 16:07:00,66.9,56.0,29.85,WSW,247,18.4,20.0,67,0.00,,,0.00,Rainwise IP-100,2013-09-07 20:07:00,
2013-09-07 16:09:00,66.9,56.0,29.85,WSW,247,14.9,20.0,67,0.00,,,0.00,Rainwise IP-100,2013-09-07 20:09:00,
2013-09-07 16:12:00,66.8,55.0,29.85,WSW,247,13.8,22.0,67,0.00,,,0.00,Rainwise IP-100,2013-09-07 20:12:00,
2013-09-07 16:13:00,66.8,55.0,29.84,SW,225,20.3,22.0,67,0.00,,,0.00,Rainwise IP-100,2013-09-07 20:13:00,
2013-09-07 16:14:00,66.7,55.0,29.85,WSW,247,17.5,22.0,66,0.00,,,0.00,Rainwise IP-100,2013-09-07 20:14:00,
2013-09-07 16:17:00,66.6,55.0,29.85,SW,225,16.1,21.0,66,0.00,,,0.00,Rainwise IP-100,2013-09-07 20:17:00,
2013-09-07 16:18:00,66.6,55.0,29.85,WSW,247,18.9,21.0,66,0.00,,,0.00,Rainwise IP-100,2013-09-07 20:18:00,
2013-09-07 16:19:00,66.5,55.0,29.85,WSW,247,15.4,20.0,66,0.00,,,0.00,Rainwise IP-100,2013-09-07 20:19:00,
2013-09-07 16:20:00,66.5,55.0,29.85,SW,225,12.8,20.0,66,0.00,,,0.00,Rainwise IP-100,2013-09-07 20:20:00,
2013-09-07 16:22:00,66.4,55.0,29.84,WSW,247,15.6,20.0,67,0.00,,,0.00,Rainwise IP-100,2013-09-07 20:22:00,
2013-09-07 16:24:00,66.4,55.0,29.84,SW,225,15.9,17.0,68,0.00,,,0.00,Rainwise IP-100,2013-09-07 20:24:00,
2013-09-07 16:26:00,66.3,55.0,29.85,SW,225,12.1,18.0,68,0.00,,,0.00,Rainwise IP-100,2013-09-07 20:26:00,
2013-09-07 16:27:00,66.3,55.0,29.84,WSW,247,14.7,18.0,68,0.00,,,0.00,Rainwise IP-100,2013-09-07 20:27:00,
2013-09-07 16:28:00,66.3,56.0,29.84,WSW,247,19.6,19.6,69,0.00,,,0.00,Rainwise IP-100,2013-09-07 20:28:00,
2013-09-07 16:29:00,66.3,56.0,29.84,SW,225,15.4,20.0,69,0.00,,,0.00,Rainwise IP-100,2013-09-07 20:29:00,
2013-09-07 16:32:00,66.2,56.0,29.84,SW,225,15.9,20.0,69,0.00,,,0.00,Rainwise IP-100,2013-09-07 20:32:00,
2013-09-07 16:33:00,66.2,56.0,29.84,WSW,247,20.8,20.8,69,0.00,,,0.00,Rainwise IP-100,2013-09-07 20:33:00,
2013-09-07 16:34:00,66.2,56.0,29.85,WSW,247,10.0,20.0,69,0.00,,,0.00,Rainwise IP-100,2013-09-07 20:34:00,
2013-09-07 16:35:00,66.3,56.0,29.85,SW,225,16.3,20.0,69,0.00,,,0.00,Rainwise IP-100,2013-09-07 20:35:00,
2013-09-07 16:38:00,66.3,55.0,29.84,WSW,247,13.5,21.0,68,0.00,,,0.00,Rainwise IP-100,2013-09-07 20:38:00,
2013-09-07 16:39:00,66.4,55.0,29.84,WSW,247,17.7,21.0,68,0.00,,,0.00,Rainwise IP-100,2013-09-07 20:39:00,
2013-09-07 16:40:00,66.4,55.0,29.84,WSW,247,13.3,21.0,67,0.00,,,0.00,Rainwise IP-100,2013-09-07 20:40:00,
2013-09-07 16:41:00,66.4,55.0,29.84,WSW,247,15.2,21.0,67,0.00,,,0.00,Rainwise IP-100,2013-09-07 20:41:00,
2013-09-07 16:44:00,66.5,55.0,29.84,SW,225,15.6,21.0,67,0.00,,,0.00,Rainwise IP-100,2013-09-07 20:44:00,
2013-09-07 16:45:00,66.5,55.0,29.84,WSW,247,16.6,21.0,67,0.00,,,0.00,Rainwise IP-100,2013-09-07 20:45:00,
2013-09-07 16:46:00,66.5,55.0,29.84,WSW,247,16.6,21.0,67,0.00,,,0.00,Rainwise IP-100,2013-09-07 20:46:00,
2013-09-07 16:49:00,66.4,55.0,29.84,SW,225,14.9,19.0,68,0.00,,,0.00,Rainwise IP-100,2013-09-07 20:49:00,
2013-09-07 16:50:00,66.4,55.0,29.84,WSW,247,17.5,21.0,68,0.00,,,0.00,Rainwise IP-100,2013-09-07 20:50:00,
2013-09-07 16:51:00,66.4,55.0,29.84,SW,225,18.2,21.0,68,0.00,,,0.00,Rainwise IP-100,2013-09-07 20:51:00,
2013-09-07 16:52:00,66.4,55.0,29.84,SW,225,14.9,21.0,67,0.00,,,0.00,Rainwise IP-100,2013-09-07 20:52:00,
2013-09-07 16:54:00,66.3,55.0,29.83,WSW,247,19.6,21.0,67,0.00,,,0.00,Rainwise IP-100,2013-09-07 20:54:00,
2013-09-07 16:56:00,66.3,55.0,29.84,WSW,247,16.1,20.0,67,0.00,,,0.00,Rainwise IP-100,2013-09-07 20:56:00,
2013-09-07 16:57:00,66.3,55.0,29.84,WSW,247,14.2,20.0,67,0.00,,,0.00,Rainwise IP-100,2013-09-07 20:57:00,
2013-09-07 16:58:00,66.3,55.0,29.84,WSW,247,16.3,20.0,67,0.00,,,0.00,Rainwise IP-100,2013-09-07 20:58:00,
2013-09-07 16:59:00,66.2,55.0,29.84,SW,225,18.7,20.0,67,0.00,,,0.00,Rainwise IP-100,2013-09-07 20:59:00,
2013-09-07 17:02:00,66.2,55.0,29.83,WSW,247,17.0,20.0,68,0.00,,,0.00,Rainwise IP-100,2013-09-07 21:02:00,
2013-09-07 17:03:00,66.2,55.0,29.84,SW,225,15.9,20.0,68,0.00,,,0.00,Rainwise IP-100,2013-09-07 21:03:00,
2013-09-07 17:04:00,66.2,55.0,29.84,SW,225,12.8,20.0,68,0.00,,,0.00,Rainwise IP-100,2013-09-07 21:04:00,
2013-09-07 17:07:00,66.3,56.0,29.83,WSW,247,13.3,19.0,69,0.00,,,0.00,Rainwise IP-100,2013-09-07 21:07:00,
2013-09-07 17:08:00,66.3,56.0,29.83,SW,225,12.4,19.0,69,0.00,,,0.00,Rainwise IP-100,2013-09-07 21:08:00,
2013-09-07 17:09:00,66.4,56.0,29.83,SW,225,21.9,21.9,69,0.00,,,0.00,Rainwise IP-100,2013-09-07 21:09:00,
2013-09-07 17:10:00,66.4,56.0,29.83,WSW,247,15.4,19.0,69,0.00,,,0.00,Rainwise IP-100,2013-09-07 21:10:00,
2013-09-07 17:13:00,66.5,56.0,29.83,WSW,247,15.4,22.0,69,0.00,,,0.00,Rainwise IP-100,2013-09-07 21:13:00,
2013-09-07 17:14:00,66.5,56.0,29.83,SW,225,14.2,22.0,69,0.00,,,0.00,Rainwise IP-100,2013-09-07 21:14:00,
2013-09-07 17:15:00,66.5,56.0,29.83,WSW,247,12.4,22.0,69,0.00,,,0.00,Rainwise IP-100,2013-09-07 21:15:00,
2013-09-07 17:18:00,66.6,56.0,29.82,SW,225,16.3,19.0,68,0.00,,,0.00,Rainwise IP-100,2013-09-07 21:18:00,
2013-09-07 17:19:00,66.7,56.0,29.82,SW,225,15.2,20.0,68,0.00,,,0.00,Rainwise IP-100,2013-09-07 21:19:00,
2013-09-07 17:20:00,66.7,56.0,29.82,SW,225,16.6,20.0,68,0.00,,,0.00,Rainwise IP-100,2013-09-07 21:20:00,
2013-09-07 17:23:00,66.8,56.0,29.82,SW,225,13.3,20.0,69,0.00,,,0.00,Rainwise IP-100,2013-09-07 21:23:00,
2013-09-07 17:24:00,66.8,56.0,29.83,WSW,247,14.7,19.0,69,0.00,,,0.00,Rainwise IP-100,2013-09-07 21:24:00,
2013-09-07 17:25:00,66.8,56.0,29.82,SW,225,15.2,19.0,69,0.00,,,0.00,Rainwise IP-100,2013-09-07 21:25:00,
2013-09-07 17:26:00,66.8,56.0,29.82,SW,225,13.5,19.0,69,0.00,,,0.00,Rainwise IP-100,2013-09-07 21:26:00,
2013-09-07 17:29:00,66.7,56.0,29.82,SW,225,12.1,20.0,70,0.00,,,0.00,Rainwise IP-100,2013-09-07 21:29:00,
2013-09-07 17:30:00,66.6,56.0,29.82,WSW,247,16.8,20.0,70,0.00,,,0.00,Rainwise IP-100,2013-09-07 21:30:00,
2013-09-07 17:32:00,66.5,56.0,29.83,WSW,247,15.6,20.0,70,0.00,,,0.00,Rainwise IP-100,2013-09-07 21:32:00,
2013-09-07 17:34:00,66.4,56.0,29.82,WSW,247,12.1,19.0,70,0.00,,,0.00,Rainwise IP-100,2013-09-07 21:34:00,
2013-09-07 17:35:00,66.4,56.0,29.83,WSW,247,13.1,21.0,70,0.00,,,0.00,Rainwise IP-100,2013-09-07 21:35:00,
2013-09-07 17:37:00,66.3,56.0,29.82,WSW,247,15.9,21.0,71,0.00,,,0.00,Rainwise IP-100,2013-09-07 21:37:00,
2013-09-07 17:39:00,66.2,56.0,29.83,SW,225,12.8,21.0,71,0.00,,,0.00,Rainwise IP-100,2013-09-07 21:39:00,
2013-09-07 17:40:00,66.1,56.0,29.83,SW,225,14.9,18.0,71,0.00,,,0.00,Rainwise IP-100,2013-09-07 21:40:00,
2013-09-07 17:41:00,66.1,56.0,29.82,WSW,247,15.4,18.0,71,0.00,,,0.00,Rainwise IP-100,2013-09-07 21:41:00,
2013-09-07 17:42:00,66.1,56.0,29.83,WSW,247,17.0,19.0,71,0.00,,,0.00,Rainwise IP-100,2013-09-07 21:42:00,
2013-09-07 17:44:00,66.1,56.0,29.83,WSW,247,17.7,19.0,71,0.00,,,0.00,Rainwise IP-100,2013-09-07 21:44:00,
2013-09-07 17:45:00,66.1,56.0,29.83,WSW,247,15.9,19.0,71,0.00,,,0.00,Rainwise IP-100,2013-09-07 21:45:00,
2013-09-07 17:46:00,66.1,56.0,29.83,WSW,247,18.0,20.0,71,0.00,,,0.00,Rainwise IP-100,2013-09-07 21:46:00,
2013-09-07 17:47:00,66.1,56.0,29.83,SW,225,18.2,20.0,71,0.00,,,0.00,Rainwise IP-100,2013-09-07 21:47:00,
2013-09-07 17:49:00,66.2,56.0,29.83,WSW,247,16.8,22.0,71,0.00,,,0.00,Rainwise IP-100,2013-09-07 21:49:00,
2013-09-07 17:50:00,66.2,56.0,29.83,WSW,247,15.4,22.0,71,0.00,,,0.00,Rainwise IP-100,2013-09-07 21:50:00,
2013-09-07 17:52:00,66.3,56.0,29.83,SW,225,19.8,22.0,71,0.00,,,0.00,Rainwise IP-100,2013-09-07 21:52:00,
2013-09-07 17:54:00,66.3,56.0,29.83,WSW,247,12.4,21.0,71,0.00,,,0.00,Rainwise IP-100,2013-09-07 21:54:00,
2013-09-07 17:55:00,66.4,56.0,29.83,SW,225,17.3,21.0,71,0.00,,,0.00,Rainwise IP-100,2013-09-07 21:55:00,
2013-09-07 17:56:00,66.4,56.0,29.83,WSW,247,12.6,21.0,71,0.00,,,0.00,Rainwise IP-100,2013-09-07 21:56:00,
2013-09-07 17:57:00,66.5,57.0,29.83,WSW,247,16.8,21.0,71,0.00,,,0.00,Rainwise IP-100,2013-09-07 21:57:00,
2013-09-07 17:59:00,66.5,57.0,29.82,WSW,247,12.6,21.0,71,0.00,,,0.00,Rainwise IP-100,2013-09-07 21:59:00,
2013-09-07 18:00:00,66.5,57.0,29.83,WSW,247,19.1,19.1,71,0.00,,,0.00,Rainwise IP-100,2013-09-07 22:00:00,
2013-09-07 18:01:00,66.4,56.0,29.83,SW,225,15.6,19.0,71,0.00,,,0.00,Rainwise IP-100,2013-09-07 22:01:00,
2013-09-07 18:02:00,66.4,56.0,29.82,SW,225,14.7,20.0,71,0.00,,,0.00,Rainwise IP-100,2013-09-07 22:02:00,
2013-09-07 18:04:00,66.4,56.0,29.82,WSW,247,11.4,20.0,70,0.00,,,0.00,Rainwise IP-100,2013-09-07 22:04:00,
2013-09-07 18:05:00,66.4,56.0,29.82,WSW,247,16.1,22.0,70,0.00,,,0.00,Rainwise IP-100,2013-09-07 22:05:00,
2013-09-07 18:06:00,66.4,56.0,29.82,SW,225,14.0,22.0,70,0.00,,,0.00,Rainwise IP-100,2013-09-07 22:06:00,
2013-09-07 18:07:00,66.3,56.0,29.82,WSW,247,16.1,22.0,71,0.00,,,0.00,Rainwise IP-100,2013-09-07 22:07:00,
2013-09-07 18:08:00,66.3,56.0,29.82,WSW,247,12.1,22.0,71,0.00,,,0.00,Rainwise IP-100,2013-09-07 22:08:00,
2013-09-07 18:10:00,66.3,56.0,29.82,WSW,247,13.1,22.0,71,0.00,,,0.00,Rainwise IP-100,2013-09-07 22:10:00,
2013-09-07 18:11:00,66.3,56.0,29.82,WSW,247,13.8,20.0,70,0.00,,,0.00,Rainwise IP-100,2013-09-07 22:11:00,
2013-09-07 18:13:00,66.3,56.0,29.82,SW,225,13.8,20.0,70,0.00,,,0.00,Rainwise IP-100,2013-09-07 22:13:00,
2013-09-07 18:14:00,66.3,56.0,29.82,WSW,247,12.6,20.0,71,0.00,,,0.00,Rainwise IP-100,2013-09-07 22:14:00,
2013-09-07 18:15:00,66.3,56.0,29.82,WSW,247,18.0,19.0,71,0.00,,,0.00,Rainwise IP-100,2013-09-07 22:15:00,
2013-09-07 18:16:00,66.3,56.0,29.82,WSW,247,14.2,18.0,71,0.00,,,0.00,Rainwise IP-100,2013-09-07 22:16:00,
2013-09-07 18:17:00,66.3,56.0,29.81,WSW,247,16.8,18.0,71,0.00,,,0.00,Rainwise IP-100,2013-09-07 22:17:00,
2013-09-07 18:18:00,66.3,56.0,29.83,SW,225,14.9,19.0,71,0.00,,,0.00,Rainwise IP-100,2013-09-07 22:18:00,
2013-09-07 18:19:00,66.2,56.0,29.82,SW,225,11.0,19.0,71,0.00,,,0.00,Rainwise IP-100,2013-09-07 22:19:00,
2013-09-07 18:20:00,66.2,56.0,29.82,SW,225,14.0,19.0,71,0.00,,,0.00,Rainwise IP-100,2013-09-07 22:20:00,
2013-09-07 18:21:00,66.2,56.0,29.82,WSW,247,13.8,19.0,71,0.00,,,0.00,Rainwise IP-100,2013-09-07 22:21:00,
2013-09-07 18:22:00,66.2,56.0,29.82,WSW,247,15.4,19.0,71,0.00,,,0.00,Rainwise IP-100,2013-09-07 22:22:00,
2013-09-07 18:24:00,66.1,56.0,29.82,WSW,247,13.1,18.0,71,0.00,,,0.00,Rainwise IP-100,2013-09-07 22:24:00,
2013-09-07 18:25:00,66.1,56.0,29.83,WSW,247,12.4,18.0,71,0.00,,,0.00,Rainwise IP-100,2013-09-07 22:25:00,
2013-09-07 18:26:00,66.0,56.0,29.83,SW,225,10.3,18.0,71,0.00,,,0.00,Rainwise IP-100,2013-09-07 22:26:00,
2013-09-07 18:27:00,66.0,56.0,29.83,SW,225,12.4,18.0,71,0.00,,,0.00,Rainwise IP-100,2013-09-07 22:27:00,
2013-09-07 18:28:00,65.9,56.0,29.82,WSW,247,12.6,18.0,71,0.00,,,0.00,Rainwise IP-100,2013-09-07 22:28:00,
2013-09-07 18:29:00,65.8,56.0,29.82,SW,225,13.5,18.0,71,0.00,,,0.00,Rainwise IP-100,2013-09-07 22:29:00,
2013-09-07 18:30:00,65.8,56.0,29.82,SW,225,14.9,17.0,71,0.00,,,0.00,Rainwise IP-100,2013-09-07 22:30:00,
2013-09-07 18:31:00,65.7,56.0,29.82,WSW,247,13.5,19.0,71,0.00,,,0.00,Rainwise IP-100,2013-09-07 22:31:00,
2013-09-07 18:32:00,65.7,56.0,29.82,WSW,247,13.8,19.0,71,0.00,,,0.00,Rainwise IP-100,2013-09-07 22:32:00,
2013-09-07 18:33:00,65.6,56.0,29.82,WSW,247,12.8,19.0,72,0.00,,,0.00,Rainwise IP-100,2013-09-07 22:33:00,
2013-09-07 18:34:00,65.6,56.0,29.82,SW,225,15.6,19.0,72,0.00,,,0.00,Rainwise IP-100,2013-09-07 22:34:00,
2013-09-07 18:36:00,65.5,56.0,29.82,SW,225,12.8,17.0,72,0.00,,,0.00,Rainwise IP-100,2013-09-07 22:36:00,
2013-09-07 18:37:00,65.5,56.0,29.83,WSW,247,14.5,17.0,72,0.00,,,0.00,Rainwise IP-100,2013-09-07 22:37:00,
2013-09-07 18:38:00,65.5,56.0,29.83,WSW,247,12.1,17.0,72,0.00,,,0.00,Rainwise IP-100,2013-09-07 22:38:00,
2013-09-07 18:39:00,65.4,56.0,29.83,WSW,247,11.0,17.0,72,0.00,,,0.00,Rainwise IP-100,2013-09-07 22:39:00,
2013-09-07 18:41:00,65.4,56.0,29.83,SW,225,13.8,17.0,72,0.00,,,0.00,Rainwise IP-100,2013-09-07 22:41:00,
2013-09-07 18:42:00,65.4,56.0,29.82,SW,225,10.7,17.0,72,0.00,,,0.00,Rainwise IP-100,2013-09-07 22:42:00,
2013-09-07 18:43:00,65.4,56.0,29.83,WSW,247,12.4,16.0,72,0.00,,,0.00,Rainwise IP-100,2013-09-07 22:43:00,
2013-09-07 18:44:00,65.4,56.0,29.83,WSW,247,11.0,16.0,72,0.00,,,0.00,Rainwise IP-100,2013-09-07 22:44:00,
2013-09-07 18:46:00,65.3,56.0,29.82,SW,225,10.5,15.0,73,0.00,,,0.00,Rainwise IP-100,2013-09-07 22:46:00,
2013-09-07 18:47:00,65.3,56.0,29.83,WSW,247,14.0,15.0,73,0.00,,,0.00,Rainwise IP-100,2013-09-07 22:47:00,
2013-09-07 18:48:00,65.3,56.0,29.82,SW,225,14.9,15.0,73,0.00,,,0.00,Rainwise IP-100,2013-09-07 22:48:00,
2013-09-07 18:50:00,65.3,56.0,29.82,SW,225,12.4,16.0,73,0.00,,,0.00,Rainwise IP-100,2013-09-07 22:50:00,
2013-09-07 18:51:00,65.3,56.0,29.82,SW,225,10.7,17.0,73,0.00,,,0.00,Rainwise IP-100,2013-09-07 22:51:00,
2013-09-07 18:52:00,65.3,56.0,29.82,WSW,247,14.2,17.0,73,0.00,,,0.00,Rainwise IP-100,2013-09-07 22:52:00,
2013-09-07 18:53:00,65.3,56.0,29.82,SW,225,12.4,17.0,74,0.00,,,0.00,Rainwise IP-100,2013-09-07 22:53:00,
2013-09-07 18:55:00,65.3,56.0,29.82,SW,225,11.9,17.0,74,0.00,,,0.00,Rainwise IP-100,2013-09-07 22:55:00,
2013-09-07 18:57:00,65.3,56.0,29.82,SW,225,11.2,18.0,74,0.00,,,0.00,Rainwise IP-100,2013-09-07 22:57:00,
2013-09-07 18:58:00,65.3,56.0,29.83,WSW,247,12.6,18.0,74,0.00,,,0.00,Rainwise IP-100,2013-09-07 22:58:00,
2013-09-07 19:01:00,65.3,56.0,29.82,WSW,247,14.0,18.0,74,0.00,,,0.00,Rainwise IP-100,2013-09-07 23:01:00,
2013-09-07 19:02:00,65.3,56.0,29.82,SW,225,11.0,16.0,74,0.00,,,0.00,Rainwise IP-100,2013-09-07 23:02:00,
2013-09-07 19:04:00,65.3,56.0,29.82,WSW,247,14.0,16.0,74,0.00,,,0.00,Rainwise IP-100,2013-09-07 23:04:00,
2013-09-07 19:05:00,65.3,56.0,29.82,SW,225,12.6,16.0,74,0.00,,,0.00,Rainwise IP-100,2013-09-07 23:05:00,
2013-09-07 19:06:00,65.3,57.0,29.82,WSW,247,14.7,17.0,75,0.00,,,0.00,Rainwise IP-100,2013-09-07 23:06:00,
2013-09-07 19:07:00,65.3,57.0,29.82,SW,225,12.6,17.0,75,0.00,,,0.00,Rainwise IP-100,2013-09-07 23:07:00,
2013-09-07 19:09:00,65.3,57.0,29.82,WSW,247,13.1,17.0,75,0.00,,,0.00,Rainwise IP-100,2013-09-07 23:09:00,
2013-09-07 19:10:00,65.3,57.0,29.82,WSW,247,12.1,17.0,75,0.00,,,0.00,Rainwise IP-100,2013-09-07 23:10:00,
2013-09-07 19:11:00,65.3,57.0,29.82,SW,225,13.8,16.0,75,0.00,,,0.00,Rainwise IP-100,2013-09-07 23:11:00,
2013-09-07 19:13:00,65.3,57.0,29.82,SW,225,12.8,16.0,75,0.00,,,0.00,Rainwise IP-100,2013-09-07 23:13:00,
2013-09-07 19:14:00,65.3,57.0,29.82,SW,225,12.4,16.0,75,0.00,,,0.00,Rainwise IP-100,2013-09-07 23:14:00,
2013-09-07 19:15:00,65.3,57.0,29.82,SW,225,10.3,16.0,75,0.00,,,0.00,Rainwise IP-100,2013-09-07 23:15:00,
2013-09-07 19:16:00,65.3,57.0,29.82,SW,225,11.2,16.0,75,0.00,,,0.00,Rainwise IP-100,2013-09-07 23:16:00,
2013-09-07 19:17:00,65.2,57.0,29.82,SW,225,13.8,16.0,75,0.00,,,0.00,Rainwise IP-100,2013-09-07 23:17:00,
2013-09-07 19:19:00,65.2,57.0,29.82,SW,225,11.2,16.0,75,0.00,,,0.00,Rainwise IP-100,2013-09-07 23:19:00,
2013-09-07 19:20:00,65.1,57.0,29.82,SW,225,16.6,16.6,75,0.00,,,0.00,Rainwise IP-100,2013-09-07 23:20:00,
2013-09-07 19:21:00,65.1,57.0,29.82,SW,225,13.8,17.0,75,0.00,,,0.00,Rainwise IP-100,2013-09-07 23:21:00,
2013-09-07 19:22:00,65.1,57.0,29.82,SW,225,13.8,17.0,75,0.00,,,0.00,Rainwise IP-100,2013-09-07 23:22:00,
2013-09-07 19:25:00,65.1,57.0,29.82,SW,225,12.1,19.0,75,0.00,,,0.00,Rainwise IP-100,2013-09-07 23:25:00,
2013-09-07 19:27:00,65.1,57.0,29.82,SW,225,14.0,19.0,75,0.00,,,0.00,Rainwise IP-100,2013-09-07 23:27:00,
2013-09-07 19:30:00,65.2,57.0,29.82,SW,225,13.1,16.0,75,0.00,,,0.00,Rainwise IP-100,2013-09-07 23:30:00,
2013-09-07 19:32:00,65.2,57.0,29.82,SW,225,12.4,16.0,75,0.00,,,0.00,Rainwise IP-100,2013-09-07 23:32:00,
2013-09-07 19:34:00,65.2,57.0,29.82,SW,225,12.4,16.0,75,0.00,,,0.00,Rainwise IP-100,2013-09-07 23:34:00,
2013-09-07 19:35:00,65.2,57.0,29.82,SW,225,11.0,15.0,75,0.00,,,0.00,Rainwise IP-100,2013-09-07 23:35:00,
2013-09-07 19:36:00,65.2,57.0,29.82,SW,225,12.1,15.0,75,0.00,,,0.00,Rainwise IP-100,2013-09-07 23:36:00,
2013-09-07 19:37:00,65.2,57.0,29.82,SW,225,12.4,15.0,75,0.00,,,0.00,Rainwise IP-100,2013-09-07 23:37:00,
2013-09-07 19:40:00,65.2,57.0,29.82,SW,225,14.9,17.0,76,0.00,,,0.00,Rainwise IP-100,2013-09-07 23:40:00,
2013-09-07 19:41:00,65.2,57.0,29.82,SW,225,14.7,17.0,76,0.00,,,0.00,Rainwise IP-100,2013-09-07 23:41:00,
2013-09-07 19:43:00,65.2,57.0,29.82,SW,225,15.2,17.0,76,0.00,,,0.00,Rainwise IP-100,2013-09-07 23:43:00,
2013-09-07 19:46:00,65.2,57.0,29.82,WSW,247,13.1,16.0,76,0.00,,,0.00,Rainwise IP-100,2013-09-07 23:46:00,
2013-09-07 19:47:00,65.2,57.0,29.82,WSW,247,12.4,16.0,76,0.00,,,0.00,Rainwise IP-100,2013-09-07 23:47:00,
2013-09-07 19:48:00,65.2,57.0,29.81,WSW,247,11.9,16.0,76,0.00,,,0.00,Rainwise IP-100,2013-09-07 23:48:00,
2013-09-07 19:51:00,65.2,57.0,29.81,WSW,247,14.9,16.0,76,0.00,,,0.00,Rainwise IP-100,2013-09-07 23:51:00,
2013-09-07 19:52:00,65.2,57.0,29.81,SW,225,14.2,17.0,76,0.00,,,0.00,Rainwise IP-100,2013-09-07 23:52:00,
2013-09-07 19:53:00,65.2,57.0,29.81,WSW,247,15.2,17.0,76,0.00,,,0.00,Rainwise IP-100,2013-09-07 23:53:00,
2013-09-07 19:54:00,65.2,57.0,29.81,WSW,247,12.4,17.0,76,0.00,,,0.00,Rainwise IP-100,2013-09-07 23:54:00,
2013-09-07 19:56:00,65.2,57.0,29.81,SW,225,11.9,17.0,76,0.00,,,0.00,Rainwise IP-100,2013-09-07 23:56:00,
2013-09-07 19:57:00,65.2,57.0,29.81,SW,225,12.6,16.0,76,0.00,,,0.00,Rainwise IP-100,2013-09-07 23:57:00,
2013-09-07 19:58:00,65.2,57.0,29.81,SW,225,15.4,15.4,76,0.00,,,0.00,Rainwise IP-100,2013-09-07 23:58:00,
2013-09-07 19:59:00,65.2,57.0,29.81,SW,225,14.2,16.0,76,0.00,,,0.00,Rainwise IP-100,2013-09-07 23:59:00,
2013-09-07 20:01:00,65.2,57.0,29.81,SW,225,12.1,17.0,76,0.00,,,0.00,Rainwise IP-100,2013-09-08 00:01:00,
2013-09-07 20:03:00,65.2,57.0,29.81,SW,225,10.5,17.0,76,0.00,,,0.00,Rainwise IP-100,2013-09-08 00:03:00,
2013-09-07 20:04:00,65.2,57.0,29.81,WSW,247,15.2,17.0,76,0.00,,,0.00,Rainwise IP-100,2013-09-08 00:04:00,
2013-09-07 20:05:00,65.3,57.0,29.81,WSW,247,11.0,17.0,76,0.00,,,0.00,Rainwise IP-100,2013-09-08 00:05:00,
2013-09-07 20:06:00,65.3,57.0,29.81,WSW,247,16.1,16.1,76,0.00,,,0.00,Rainwise IP-100,2013-09-08 00:06:00,
2013-09-07 20:08:00,65.3,57.0,29.81,WSW,247,11.9,16.0,76,0.00,,,0.00,Rainwise IP-100,2013-09-08 00:08:00,
2013-09-07 20:09:00,65.3,57.0,29.81,SW,225,10.5,16.0,77,0.00,,,0.00,Rainwise IP-100,2013-09-08 00:09:00,
2013-09-07 20:11:00,65.3,57.0,29.81,SW,225,12.8,16.0,77,0.00,,,0.00,Rainwise IP-100,2013-09-08 00:11:00,
2013-09-07 20:12:00,65.3,57.0,29.81,SW,225,11.0,16.0,77,0.00,,,0.00,Rainwise IP-100,2013-09-08 00:12:00,
2013-09-07 20:13:00,65.3,57.0,29.81,SW,225,11.7,17.0,77,0.00,,,0.00,Rainwise IP-100,2013-09-08 00:13:00,
2013-09-07 20:14:00,65.3,57.0,29.81,WSW,247,16.3,17.0,77,0.00,,,0.00,Rainwise IP-100,2013-09-08 00:14:00,
2013-09-07 20:15:00,65.3,57.0,29.81,SW,225,10.5,17.0,77,0.00,,,0.00,Rainwise IP-100,2013-09-08 00:15:00,
2013-09-07 20:16:00,65.3,57.0,29.81,WSW,247,11.7,17.0,77,0.00,,,0.00,Rainwise IP-100,2013-09-08 00:16:00,
2013-09-07 20:17:00,65.3,57.0,29.81,SW,225,10.3,17.0,77,0.00,,,0.00,Rainwise IP-100,2013-09-08 00:17:00,
2013-09-07 20:18:00,65.3,57.0,29.81,WSW,247,15.4,17.0,77,0.00,,,0.00,Rainwise IP-100,2013-09-08 00:18:00,
2013-09-07 20:19:00,65.3,57.0,29.81,SW,225,14.0,17.0,76,0.00,,,0.00,Rainwise IP-100,2013-09-08 00:19:00,
2013-09-07 20:20:00,65.3,57.0,29.81,WSW,247,14.7,17.0,76,0.00,,,0.00,Rainwise IP-100,2013-09-08 00:20:00,
2013-09-07 20:21:00,65.3,57.0,29.81,SW,225,14.5,17.0,76,0.00,,,0.00,Rainwise IP-100,2013-09-08 00:21:00,
2013-09-07 20:23:00,65.4,57.0,29.81,WSW,247,13.3,15.0,76,0.00,,,0.00,Rainwise IP-100,2013-09-08 00:23:00,
2013-09-07 20:24:00,65.4,57.0,29.81,SW,225,10.5,15.0,76,0.00,,,0.00,Rainwise IP-100,2013-09-08 00:24:00,
2013-09-07 20:25:00,65.4,57.0,29.81,WSW,247,10.0,15.0,76,0.00,,,0.00,Rainwise IP-100,2013-09-08 00:25:00,
2013-09-07 20:27:00,65.4,57.0,29.81,WSW,247,13.1,17.0,76,0.00,,,0.00,Rainwise IP-100,2013-09-08 00:27:00,
2013-09-07 20:28:00,65.4,57.0,29.81,SW,225,14.7,17.0,76,0.00,,,0.00,Rainwise IP-100,2013-09-08 00:28:00,
2013-09-07 20:29:00,65.4,57.0,29.81,WSW,247,11.2,17.0,75,0.00,,,0.00,Rainwise IP-100,2013-09-08 00:29:00,
2013-09-07 20:30:00,65.4,57.0,29.81,WSW,247,13.5,17.0,75,0.00,,,0.00,Rainwise IP-100,2013-09-08 00:30:00,
2013-09-07 20:31:00,65.4,57.0,29.81,SW,225,11.0,16.0,75,0.00,,,0.00,Rainwise IP-100,2013-09-08 00:31:00,
2013-09-07 20:32:00,65.4,57.0,29.81,SW,225,12.4,17.0,75,0.00,,,0.00,Rainwise IP-100,2013-09-08 00:32:00,
2013-09-07 20:33:00,65.4,57.0,29.81,SW,225,11.7,17.0,75,0.00,,,0.00,Rainwise IP-100,2013-09-08 00:33:00,
2013-09-07 20:34:00,65.4,57.0,29.81,SW,225,13.8,17.0,75,0.00,,,0.00,Rainwise IP-100,2013-09-08 00:34:00,
2013-09-07 20:35:00,65.4,57.0,29.81,WSW,247,13.3,17.0,76,0.00,,,0.00,Rainwise IP-100,2013-09-08 00:35:00,
2013-09-07 20:36:00,65.4,57.0,29.81,SW,225,12.6,17.0,76,0.00,,,0.00,Rainwise IP-100,2013-09-08 00:36:00,
2013-09-07 20:37:00,65.4,57.0,29.81,SW,225,10.7,14.0,76,0.00,,,0.00,Rainwise IP-100,2013-09-08 00:37:00,
2013-09-07 20:39:00,65.4,57.0,29.81,SW,225,14.0,15.0,76,0.00,,,0.00,Rainwise IP-100,2013-09-08 00:39:00,
2013-09-07 20:40:00,65.4,57.0,29.81,SW,225,15.6,15.6,76,0.00,,,0.00,Rainwise IP-100,2013-09-08 00:40:00,
2013-09-07 20:41:00,65.4,57.0,29.81,SW,225,12.4,16.0,76,0.00,,,0.00,Rainwise IP-100,2013-09-08 00:41:00,
2013-09-07 20:42:00,65.5,57.0,29.81,SW,225,13.5,16.0,76,0.00,,,0.00,Rainwise IP-100,2013-09-08 00:42:00,
2013-09-07 20:43:00,65.5,57.0,29.81,SW,225,13.1,16.0,76,0.00,,,0.00,Rainwise IP-100,2013-09-08 00:43:00,
2013-09-07 20:45:00,65.5,57.0,29.81,SW,225,11.2,17.0,76,0.00,,,0.00,Rainwise IP-100,2013-09-08 00:45:00,
2013-09-07 20:46:00,65.5,57.0,29.82,WSW,247,15.4,18.0,76,0.00,,,0.00,Rainwise IP-100,2013-09-08 00:46:00,
2013-09-07 20:47:00,65.5,57.0,29.81,WSW,247,13.3,18.0,76,0.00,,,0.00,Rainwise IP-100,2013-09-08 00:47:00,
2013-09-07 20:48:00,65.5,57.0,29.81,WSW,247,15.4,18.0,76,0.00,,,0.00,Rainwise IP-100,2013-09-08 00:48:00,
2013-09-07 20:50:00,65.6,57.0,29.82,WSW,247,14.9,18.0,76,0.00,,,0.00,Rainwise IP-100,2013-09-08 00:50:00,
2013-09-07 20:52:00,65.6,57.0,29.82,SW,225,12.1,17.0,75,0.00,,,0.00,Rainwise IP-100,2013-09-08 00:52:00,
2013-09-07 20:53:00,65.6,57.0,29.82,SW,225,15.2,17.0,75,0.00,,,0.00,Rainwise IP-100,2013-09-08 00:53:00,
2013-09-07 20:57:00,65.6,57.0,29.82,WSW,247,12.4,16.0,75,0.00,,,0.00,Rainwise IP-100,2013-09-08 00:57:00,
2013-09-07 20:58:00,65.6,57.0,29.82,WSW,247,12.8,15.0,75,0.00,,,0.00,Rainwise IP-100,2013-09-08 00:58:00,
2013-09-07 20:59:00,65.5,57.0,29.82,SW,225,13.1,15.0,75,0.00,,,0.00,Rainwise IP-100,2013-09-08 00:59:00,
2013-09-07 21:02:00,65.5,57.0,29.82,WSW,247,13.5,15.0,76,0.00,,,0.00,Rainwise IP-100,2013-09-08 01:02:00,
2013-09-07 21:03:00,65.5,57.0,29.82,WSW,247,13.5,15.0,76,0.00,,,0.00,Rainwise IP-100,2013-09-08 01:03:00,
2013-09-07 21:04:00,65.5,57.0,29.82,WSW,247,9.6,15.0,76,0.00,,,0.00,Rainwise IP-100,2013-09-08 01:04:00,
2013-09-07 21:05:00,65.5,57.0,29.82,WSW,247,14.0,15.0,76,0.00,,,0.00,Rainwise IP-100,2013-09-08 01:05:00,
2013-09-07 21:07:00,65.4,57.0,29.82,WSW,247,11.7,15.0,76,0.00,,,0.00,Rainwise IP-100,2013-09-08 01:07:00,
2013-09-07 21:08:00,65.4,57.0,29.82,SW,225,10.5,15.0,76,0.00,,,0.00,Rainwise IP-100,2013-09-08 01:08:00,
2013-09-07 21:09:00,65.4,57.0,29.81,WSW,247,11.7,14.0,76,0.00,,,0.00,Rainwise IP-100,2013-09-08 01:09:00,
2013-09-07 21:10:00,65.4,57.0,29.82,WSW,247,10.3,14.0,76,0.00,,,0.00,Rainwise IP-100,2013-09-08 01:10:00,
2013-09-07 21:12:00,65.4,57.0,29.82,WSW,247,13.8,14.0,76,0.00,,,0.00,Rainwise IP-100,2013-09-08 01:12:00,
2013-09-07 21:13:00,65.4,57.0,29.82,WSW,247,10.3,14.0,76,0.00,,,0.00,Rainwise IP-100,2013-09-08 01:13:00,
2013-09-07 21:14:00,65.4,57.0,29.82,WSW,247,8.9,14.0,76,0.00,,,0.00,Rainwise IP-100,2013-09-08 01:14:00,
2013-09-07 21:15:00,65.4,57.0,29.82,WSW,247,11.2,14.0,76,0.00,,,0.00,Rainwise IP-100,2013-09-08 01:15:00,
2013-09-07 21:17:00,65.4,57.0,29.82,WSW,247,9.3,14.0,76,0.00,,,0.00,Rainwise IP-100,2013-09-08 01:17:00,
2013-09-07 21:18:00,65.4,57.0,29.82,WSW,247,13.8,14.0,76,0.00,,,0.00,Rainwise IP-100,2013-09-08 01:18:00,
2013-09-07 21:19:00,65.4,57.0,29.82,WSW,247,10.0,14.0,76,0.00,,,0.00,Rainwise IP-100,2013-09-08 01:19:00,
2013-09-07 21:21:00,65.3,57.0,29.82,WSW,247,10.5,15.0,76,0.00,,,0.00,Rainwise IP-100,2013-09-08 01:21:00,
2013-09-07 21:23:00,65.3,57.0,29.81,WSW,247,9.8,15.0,77,0.00,,,0.00,Rainwise IP-100,2013-09-08 01:23:00,
2013-09-07 21:24:00,65.3,57.0,29.81,WSW,247,11.0,15.0,77,0.00,,,0.00,Rainwise IP-100,2013-09-08 01:24:00,
2013-09-07 21:25:00,65.3,57.0,29.81,WSW,247,10.7,15.0,77,0.00,,,0.00,Rainwise IP-100,2013-09-08 01:25:00,
2013-09-07 21:26:00,65.3,57.0,29.81,SW,225,11.2,15.0,77,0.00,,,0.00,Rainwise IP-100,2013-09-08 01:26:00,
2013-09-07 21:27:00,65.3,57.0,29.81,WSW,247,11.2,13.0,77,0.00,,,0.00,Rainwise IP-100,2013-09-08 01:27:00,
2013-09-07 21:28:00,65.3,57.0,29.81,WSW,247,12.4,13.0,77,0.00,,,0.00,Rainwise IP-100,2013-09-08 01:28:00,
2013-09-07 21:30:00,65.3,57.0,29.81,WSW,247,11.0,13.0,77,0.00,,,0.00,Rainwise IP-100,2013-09-08 01:30:00,
2013-09-07 21:31:00,65.4,58.0,29.81,WSW,247,14.7,14.7,77,0.00,,,0.00,Rainwise IP-100,2013-09-08 01:31:00,
2013-09-07 21:34:00,65.4,58.0,29.81,SW,225,10.7,15.0,77,0.00,,,0.00,Rainwise IP-100,2013-09-08 01:34:00,
2013-09-07 21:35:00,65.4,58.0,29.81,SW,225,12.6,15.0,77,0.00,,,0.00,Rainwise IP-100,2013-09-08 01:35:00,
2013-09-07 21:36:00,65.4,58.0,29.81,SW,225,11.4,15.0,77,0.00,,,0.00,Rainwise IP-100,2013-09-08 01:36:00,
2013-09-07 21:37:00,65.4,58.0,29.81,WSW,247,13.1,14.0,77,0.00,,,0.00,Rainwise IP-100,2013-09-08 01:37:00,
2013-09-07 21:39:00,65.4,58.0,29.81,SW,225,13.3,16.0,77,0.00,,,0.00,Rainwise IP-100,2013-09-08 01:39:00,
2013-09-07 21:40:00,65.4,58.0,29.81,WSW,247,11.4,16.0,77,0.00,,,0.00,Rainwise IP-100,2013-09-08 01:40:00,
2013-09-07 21:41:00,65.4,58.0,29.81,SW,225,15.9,16.0,77,0.00,,,0.00,Rainwise IP-100,2013-09-08 01:41:00,
2013-09-07 21:42:00,65.5,58.0,29.81,SW,225,13.5,16.0,77,0.00,,,0.00,Rainwise IP-100,2013-09-08 01:42:00,
2013-09-07 21:43:00,65.5,58.0,29.81,WSW,247,10.7,16.0,77,0.00,,,0.00,Rainwise IP-100,2013-09-08 01:43:00,
2013-09-07 21:44:00,65.5,58.0,29.81,WSW,247,10.5,15.0,77,0.00,,,0.00,Rainwise IP-100,2013-09-08 01:44:00,
2013-09-07 21:45:00,65.5,58.0,29.81,WSW,247,14.7,15.0,77,0.00,,,0.00,Rainwise IP-100,2013-09-08 01:45:00,
2013-09-07 21:46:00,65.6,58.0,29.81,SW,225,11.9,17.0,77,0.00,,,0.00,Rainwise IP-100,2013-09-08 01:46:00,
2013-09-07 21:48:00,65.6,58.0,29.81,SW,225,14.9,17.0,77,0.00,,,0.00,Rainwise IP-100,2013-09-08 01:48:00,
2013-09-07 21:49:00,65.6,58.0,29.81,WSW,247,11.9,17.0,77,0.00,,,0.00,Rainwise IP-100,2013-09-08 01:49:00,
2013-09-07 21:51:00,65.6,58.0,29.81,SW,225,13.3,16.0,77,0.00,,,0.00,Rainwise IP-100,2013-09-08 01:51:00,
2013-09-07 21:53:00,65.6,58.0,29.81,WSW,247,13.1,16.0,77,0.00,,,0.00,Rainwise IP-100,2013-09-08 01:53:00,
2013-09-07 21:54:00,65.6,58.0,29.81,WSW,247,11.7,16.0,77,0.00,,,0.00,Rainwise IP-100,2013-09-08 01:54:00,
2013-09-07 21:56:00,65.7,58.0,29.81,WSW,247,11.0,15.0,77,0.00,,,0.00,Rainwise IP-100,2013-09-08 01:56:00,
2013-09-07 21:57:00,65.6,58.0,29.81,WSW,247,9.8,15.0,77,0.00,,,0.00,Rainwise IP-100,2013-09-08 01:57:00,
2013-09-07 21:59:00,65.6,58.0,29.81,SW,225,12.6,15.0,77,0.00,,,0.00,Rainwise IP-100,2013-09-08 01:59:00,
2013-09-07 22:00:00,65.6,58.0,29.81,SW,225,14.9,17.0,77,0.00,,,0.00,Rainwise IP-100,2013-09-08 02:00:00,
2013-09-07 22:01:00,65.6,58.0,29.81,WSW,247,10.0,17.0,78,0.00,,,0.00,Rainwise IP-100,2013-09-08 02:01:00,
2013-09-07 22:02:00,65.6,58.0,29.81,WSW,247,9.6,17.0,78,0.00,,,0.00,Rainwise IP-100,2013-09-08 02:02:00,
2013-09-07 22:03:00,65.6,58.0,29.81,WSW,247,10.7,17.0,78,0.00,,,0.00,Rainwise IP-100,2013-09-08 02:03:00,
2013-09-07 22:04:00,65.6,58.0,29.81,SW,225,12.8,17.0,78,0.00,,,0.00,Rainwise IP-100,2013-09-08 02:04:00,
2013-09-07 22:05:00,65.6,58.0,29.81,WSW,247,11.7,17.0,78,0.00,,,0.00,Rainwise IP-100,2013-09-08 02:05:00,
2013-09-07 22:07:00,65.5,58.0,29.81,SW,225,12.1,16.0,78,0.00,,,0.00,Rainwise IP-100,2013-09-08 02:07:00,
2013-09-07 22:10:00,65.5,58.0,29.81,SW,225,14.5,16.0,78,0.00,,,0.00,Rainwise IP-100,2013-09-08 02:10:00,
2013-09-07 22:11:00,65.6,58.0,29.81,WSW,247,11.7,16.0,78,0.00,,,0.00,Rainwise IP-100,2013-09-08 02:11:00,
2013-09-07 22:12:00,65.6,58.0,29.80,WSW,247,14.7,16.0,78,0.00,,,0.00,Rainwise IP-100,2013-09-08 02:12:00,
2013-09-07 22:16:00,65.6,58.0,29.81,WSW,247,10.7,16.0,78,0.00,,,0.00,Rainwise IP-100,2013-09-08 02:16:00,
2013-09-07 22:17:00,65.6,58.0,29.81,WSW,247,13.1,16.0,78,0.00,,,0.00,Rainwise IP-100,2013-09-08 02:17:00,
2013-09-07 22:20:00,65.7,58.0,29.81,WSW,247,13.3,17.0,77,0.00,,,0.00,Rainwise IP-100,2013-09-08 02:20:00,
2013-09-07 22:21:00,65.7,58.0,29.81,SW,225,11.7,17.0,77,0.00,,,0.00,Rainwise IP-100,2013-09-08 02:21:00,
2013-09-07 22:22:00,65.7,58.0,29.81,SW,225,13.8,17.0,77,0.00,,,0.00,Rainwise IP-100,2013-09-08 02:22:00,
2013-09-07 22:25:00,65.7,58.0,29.81,WSW,247,13.1,16.0,77,0.00,,,0.00,Rainwise IP-100,2013-09-08 02:25:00,
2013-09-07 22:27:00,65.7,58.0,29.80,SW,225,12.8,16.0,77,0.00,,,0.00,Rainwise IP-100,2013-09-08 02:27:00,
2013-09-07 22:28:00,65.7,58.0,29.80,WSW,247,13.3,16.0,77,0.00,,,0.00,Rainwise IP-100,2013-09-08 02:28:00,
2013-09-07 22:30:00,65.7,58.0,29.80,WSW,247,11.9,16.0,78,0.00,,,0.00,Rainwise IP-100,2013-09-08 02:30:00,
2013-09-07 22:32:00,65.6,58.0,29.80,SW,225,11.9,17.0,78,0.00,,,0.00,Rainwise IP-100,2013-09-08 02:32:00,
2013-09-07 22:35:00,65.6,58.0,29.80,WSW,247,12.4,17.0,78,0.00,,,0.00,Rainwise IP-100,2013-09-08 02:35:00,
2013-09-07 22:36:00,65.6,58.0,29.80,WSW,247,12.8,17.0,78,0.00,,,0.00,Rainwise IP-100,2013-09-08 02:36:00,
2013-09-07 22:37:00,65.6,59.0,29.80,WSW,247,14.5,17.0,79,0.00,,,0.00,Rainwise IP-100,2013-09-08 02:37:00,
2013-09-07 22:38:00,65.6,59.0,29.80,WSW,247,16.3,17.0,79,0.00,,,0.00,Rainwise IP-100,2013-09-08 02:38:00,
2013-09-07 22:41:00,65.7,59.0,29.80,SW,225,10.5,18.0,79,0.00,,,0.00,Rainwise IP-100,2013-09-08 02:41:00,
2013-09-07 22:42:00,65.7,59.0,29.80,WSW,247,16.6,18.0,79,0.00,,,0.00,Rainwise IP-100,2013-09-08 02:42:00,
2013-09-07 22:43:00,65.7,59.0,29.80,SW,225,13.8,18.0,79,0.00,,,0.00,Rainwise IP-100,2013-09-08 02:43:00,
2013-09-07 22:44:00,65.7,59.0,29.80,SW,225,12.8,18.0,79,0.00,,,0.00,Rainwise IP-100,2013-09-08 02:44:00,
2013-09-07 22:46:00,65.7,59.0,29.80,WSW,247,12.8,17.0,79,0.00,,,0.00,Rainwise IP-100,2013-09-08 02:46:00,
2013-09-07 22:47:00,65.7,59.0,29.80,WSW,247,14.9,17.0,79,0.00,,,0.00,Rainwise IP-100,2013-09-08 02:47:00,
2013-09-07 22:48:00,65.7,59.0,29.80,WSW,247,14.2,17.0,79,0.00,,,0.00,Rainwise IP-100,2013-09-08 02:48:00,
2013-09-07 22:49:00,65.7,59.0,29.80,SW,225,13.8,17.0,79,0.00,,,0.00,Rainwise IP-100,2013-09-08 02:49:00,
2013-09-07 22:50:00,65.6,59.0,29.80,WSW,247,10.5,16.0,79,0.00,,,0.00,Rainwise IP-100,2013-09-08 02:50:00,
2013-09-07 22:52:00,65.6,59.0,29.80,WSW,247,12.6,16.0,79,0.00,,,0.00,Rainwise IP-100,2013-09-08 02:52:00,
2013-09-07 22:53:00,65.6,59.0,29.80,WSW,247,12.1,16.0,79,0.00,,,0.00,Rainwise IP-100,2013-09-08 02:53:00,
2013-09-07 22:54:00,65.6,59.0,29.80,WSW,247,11.4,16.0,79,0.00,,,0.00,Rainwise IP-100,2013-09-08 02:54:00,
2013-09-07 22:56:00,65.6,59.0,29.80,WSW,247,16.1,16.1,80,0.00,,,0.00,Rainwise IP-100,2013-09-08 02:56:00,
2013-09-07 22:57:00,65.6,59.0,29.80,WSW,247,10.5,16.0,80,0.00,,,0.00,Rainwise IP-100,2013-09-08 02:57:00,
2013-09-07 22:58:00,65.5,59.0,29.79,WSW,247,11.9,16.0,80,0.00,,,0.00,Rainwise IP-100,2013-09-08 02:58:00,
2013-09-07 22:59:00,65.5,59.0,29.80,SW,225,15.9,16.0,80,0.00,,,0.00,Rainwise IP-100,2013-09-08 02:59:00,
2013-09-07 23:02:00,65.5,59.0,29.80,WSW,247,14.9,16.0,80,0.00,,,0.00,Rainwise IP-100,2013-09-08 03:02:00,
2013-09-07 23:03:00,65.5,59.0,29.79,SW,225,12.6,16.0,80,0.00,,,0.00,Rainwise IP-100,2013-09-08 03:03:00,
2013-09-07 23:04:00,65.5,59.0,29.79,WSW,247,12.8,16.0,81,0.00,,,0.00,Rainwise IP-100,2013-09-08 03:04:00,
2013-09-07 23:08:00,65.5,59.0,29.79,WSW,247,13.3,17.0,81,0.00,,,0.00,Rainwise IP-100,2013-09-08 03:08:00,
2013-09-07 23:09:00,65.5,59.0,29.79,WSW,247,16.6,17.0,81,0.00,,,0.00,Rainwise IP-100,2013-09-08 03:09:00,
2013-09-07 23:10:00,65.4,59.0,29.79,WSW,247,12.4,17.0,81,0.00,,,0.00,Rainwise IP-100,2013-09-08 03:10:00,
2013-09-07 23:11:00,65.4,59.0,29.79,SW,225,18.0,18.0,81,0.00,,,0.00,Rainwise IP-100,2013-09-08 03:11:00,
2013-09-07 23:14:00,65.4,59.0,29.79,WSW,247,13.8,18.0,81,0.00,,,0.00,Rainwise IP-100,2013-09-08 03:14:00,
2013-09-07 23:15:00,65.5,59.0,29.79,WSW,247,13.1,18.0,81,0.00,,,0.00,Rainwise IP-100,2013-09-08 03:15:00,
2013-09-07 23:17:00,65.5,59.0,29.79,WSW,247,12.8,18.0,81,0.00,,,0.00,Rainwise IP-100,2013-09-08 03:17:00,
2013-09-07 23:18:00,65.5,59.0,29.79,WSW,247,10.3,18.0,81,0.00,,,0.00,Rainwise IP-100,2013-09-08 03:18:00,
2013-09-07 23:19:00,65.5,59.0,29.79,WSW,247,14.7,18.0,81,0.00,,,0.00,Rainwise IP-100,2013-09-08 03:19:00,
2013-09-07 23:20:00,65.5,59.0,29.78,WSW,247,11.0,18.0,81,0.00,,,0.00,Rainwise IP-100,2013-09-08 03:20:00,
2013-09-07 23:23:00,65.4,60.0,29.79,WSW,247,14.0,17.0,82,0.00,,,0.00,Rainwise IP-100,2013-09-08 03:23:00,
2013-09-07 23:24:00,65.5,59.0,29.78,WSW,247,11.0,17.0,81,0.00,,,0.00,Rainwise IP-100,2013-09-08 03:24:00,
2013-09-07 23:25:00,65.5,59.0,29.79,WSW,247,14.9,17.0,81,0.00,,,0.00,Rainwise IP-100,2013-09-08 03:25:00,
2013-09-07 23:28:00,65.5,59.0,29.78,WSW,247,12.4,17.0,81,0.00,,,0.00,Rainwise IP-100,2013-09-08 03:28:00,
2013-09-07 23:29:00,65.5,59.0,29.79,WSW,247,12.1,17.0,81,0.00,,,0.00,Rainwise IP-100,2013-09-08 03:29:00,
2013-09-07 23:30:00,65.5,59.0,29.79,WSW,247,14.7,17.0,81,0.00,,,0.00,Rainwise IP-100,2013-09-08 03:30:00,
2013-09-07 23:31:00,65.5,59.0,29.79,WSW,247,14.2,17.0,81,0.00,,,0.00,Rainwise IP-100,2013-09-08 03:31:00,
2013-09-07 23:34:00,65.6,59.0,29.78,WSW,247,12.1,16.0,81,0.00,,,0.00,Rainwise IP-100,2013-09-08 03:34:00,
2013-09-07 23:35:00,65.6,59.0,29.79,WSW,247,10.3,16.0,80,0.00,,,0.00,Rainwise IP-100,2013-09-08 03:35:00,
2013-09-07 23:37:00,65.6,59.0,29.78,SW,225,18.4,18.4,80,0.00,,,0.00,Rainwise IP-100,2013-09-08 03:37:00,
2013-09-07 23:39:00,65.6,59.0,29.79,WSW,247,12.4,19.0,80,0.00,,,0.00,Rainwise IP-100,2013-09-08 03:39:00,
2013-09-07 23:40:00,65.6,59.0,29.79,SW,225,18.9,19.0,80,0.00,,,0.00,Rainwise IP-100,2013-09-08 03:40:00,
2013-09-07 23:41:00,65.6,59.0,29.78,SW,225,11.9,19.0,80,0.00,,,0.00,Rainwise IP-100,2013-09-08 03:41:00,
2013-09-07 23:42:00,65.6,59.0,29.79,WSW,247,12.6,19.0,80,0.00,,,0.00,Rainwise IP-100,2013-09-08 03:42:00,
2013-09-07 23:44:00,65.6,59.0,29.78,SW,225,15.9,18.0,80,0.00,,,0.00,Rainwise IP-100,2013-09-08 03:44:00,
2013-09-07 23:46:00,65.7,59.0,29.78,WSW,247,18.0,18.0,80,0.00,,,0.00,Rainwise IP-100,2013-09-08 03:46:00,
2013-09-07 23:47:00,65.7,59.0,29.78,WSW,247,16.3,18.0,80,0.00,,,0.00,Rainwise IP-100,2013-09-08 03:47:00,
2013-09-07 23:49:00,65.7,59.0,29.79,SW,225,13.8,18.0,80,0.00,,,0.00,Rainwise IP-100,2013-09-08 03:49:00,
2013-09-07 23:50:00,65.7,59.0,29.79,WSW,247,11.7,18.0,80,0.00,,,0.00,Rainwise IP-100,2013-09-08 03:50:00,
2013-09-07 23:51:00,65.7,59.0,29.79,WSW,247,13.3,18.0,80,0.00,,,0.00,Rainwise IP-100,2013-09-08 03:51:00,
2013-09-07 23:52:00,65.7,59.0,29.79,SW,225,15.4,17.0,80,0.00,,,0.00,Rainwise IP-100,2013-09-08 03:52:00,
2013-09-07 23:53:00,65.7,59.0,29.78,WSW,247,16.1,17.0,80,0.00,,,0.00,Rainwise IP-100,2013-09-08 03:53:00,
2013-09-07 23:55:00,65.7,59.0,29.78,WSW,247,12.1,17.0,80,0.00,,,0.00,Rainwise IP-100,2013-09-08 03:55:00,
2013-09-07 23:56:00,65.7,59.0,29.78,WSW,247,14.7,17.0,80,0.00,,,0.00,Rainwise IP-100,2013-09-08 03:56:00,
2013-09-07 23:58:00,65.6,59.0,29.78,WSW,247,12.1,17.0,81,0.00,,,0.00,Rainwise IP-100,2013-09-08 03:58:00,
2013-09-07 23:59:00,65.6,59.0,29.78,SW,225,12.6,17.0,81,0.00,,,0.00,Rainwise IP-100,2013-09-08 03:59:00,